GEFSNE_prec_meanprecacc_006.txt.gz
Total_Precipitation_Accumulation
0.00 0.00 0.00 0.00 0.00 0.00 0.00 0.00 0.00 0.00 0.00 0.00 0.00 0.00 0.00 0.00 0.00 0.00 0.00 0.00 0.00 0.00 0.00 0.00 0.00 0.00 0.00 0.00 0.00 0.00 0.00 0.00 0.00 0.00 0.00 0.00 0.00 0.00
0.00 0.00 0.00 0.00 0.00 0.00 0.00 0.00 0.00 0.00 0.00 0.00 0.00 0.00 0.00 0.00 0.00 0.00 0.00 0.00 0.00 0.00 0.00 0.00 0.00 0.00 0.00 0.00 0.00 0.00 0.00 0.00 0.00 0.00 0.00 0.00 0.00 0.00
0.00 0.00 0.00 0.00 0.00 0.00 0.00 0.00 0.00 0.00 0.00 0.00 0.00 0.00 0.00 0.00 0.00 0.00 0.00 0.00 0.00 0.00 0.00 0.00 0.00 0.00 0.00 0.00 0.00 0.00 0.00 0.00 0.00 0.00 0.00 0.00 0.00 0.00
0.02 0.02 0.02 0.02 0.01 0.00 0.00 0.00 0.00 0.00 0.00 0.00 0.00 0.00 0.00 0.00 0.00 0.00 0.00 0.00 0.00 0.00 0.00 0.00 0.00 0.00 0.00 0.00 0.00 0.00 0.00 0.00 0.00 0.00 0.00 0.00 0.00 0.00
0.04 0.04 0.04 0.04 0.02 0.01 0.00 0.00 0.00 0.01 0.01 0.01 0.01 0.01 0.00 0.00 0.01 0.00 0.00 0.00 0.00 0.00 0.01 0.01 0.00 0.00 0.00 0.00 0.00 0.00 0.00 0.00 0.00 0.00 0.00 0.00 0.00 0.00
0.06 0.06 0.06 0.04 0.02 0.01 0.00 0.00 0.00 0.00 0.01 0.02 0.02 0.02 0.01 0.01 0.03 0.03 0.02 0.01 0.01 0.00 0.00 0.00 0.00 0.00 0.00 0.00 0.00 0.00 0.00 0.00 0.00 0.00 0.00 0.00 0.00 0.00
0.08 0.06 0.05 0.04 0.03 0.01 0.01 0.00 0.00 0.00 0.00 0.01 0.01 0.02 0.02 0.02 0.04 0.04 0.06 0.05 0.06 0.04 0.02 0.00 0.00 0.00 0.00 0.00 0.00 0.00 0.00 0.00 0.00 0.00 0.00 0.00 0.00 0.00
0.06 0.04 0.03 0.03 0.02 0.01 0.01 0.01 0.01 0.01 0.01 0.01 0.01 0.01 0.01 0.01 0.02 0.03 0.04 0.05 0.06 0.06 0.04 0.02 0.00 0.00 0.00 0.00 0.00 0.00 0.00 0.00 0.00 0.00 0.00 0.00 0.00 0.00
0.01 0.01 0.01 0.01 0.00 0.00 0.01 0.01 0.01 0.01 0.01 0.01 0.02 0.02 0.01 0.01 0.01 0.01 0.02 0.02 0.04 0.03 0.02 0.01 0.00 0.00 0.00 0.00 0.00 0.00 0.00 0.00 0.00 0.00 0.00 0.00 0.00 0.00
0.00 0.00 0.00 0.00 0.00 0.00 0.00 0.00 0.00 0.00 0.00 0.00 0.00 0.01 0.01 0.01 0.01 0.00 0.00 0.00 0.01 0.01 0.00 0.00 0.00 0.00 0.00 0.00 0.00 0.00 0.00 0.00 0.00 0.00 0.00 0.00 0.00 0.00
0.00 0.00 0.00 0.00 0.00 0.00 0.00 0.00 0.00 0.00 0.00 0.00 0.00 0.00 0.00 0.00 0.00 0.00 0.00 0.00 0.01 0.00 0.00 0.00 0.00 0.00 0.00 0.00 0.00 0.00 0.00 0.00 0.00 0.00 0.00 0.00 0.00 0.00
0.00 0.00 0.00 0.00 0.00 0.00 0.00 0.00 0.00 0.00 0.00 0.00 0.00 0.00 0.00 0.00 0.00 0.00 0.00 0.00 0.00 0.00 0.00 0.00 0.00 0.00 0.00 0.00 0.00 0.00 0.00 0.00 0.00 0.00 0.00 0.00 0.00 0.00
0.00 0.00 0.00 0.00 0.00 0.00 0.00 0.00 0.00 0.00 0.00 0.00 0.00 0.00 0.00 0.00 0.00 0.00 0.00 0.00 0.00 0.00 0.00 0.00 0.00 0.00 0.00 0.00 0.00 0.00 0.00 0.00 0.00 0.00 0.00 0.00 0.00 0.00
0.00 0.00 0.00 0.00 0.00 0.00 0.00 0.00 0.00 0.00 0.00 0.00 0.00 0.00 0.00 0.00 0.00 0.00 0.00 0.00 0.00 0.00 0.00 0.00 0.00 0.00 0.00 0.00 0.00 0.00 0.00 0.00 0.00 0.00 0.00 0.00 0.00 0.00
0.00 0.00 0.00 0.00 0.00 0.00 0.00 0.00 0.00 0.00 0.00 0.00 0.00 0.00 0.00 0.00 0.00 0.00 0.00 0.00 0.00 0.00 0.00 0.00 0.00 0.00 0.00 0.00 0.00 0.00 0.00 0.00 0.00 0.00 0.00 0.00 0.00 0.00
0.02 0.01 0.00 0.00 0.00 0.00 0.00 0.00 0.00 0.00 0.00 0.00 0.00 0.00 0.00 0.00 0.00 0.00 0.00 0.00 0.00 0.00 0.00 0.00 0.00 0.00 0.00 0.00 0.00 0.00 0.00 0.00 0.00 0.00 0.00 0.00 0.00 0.00
0.02 0.01 0.00 0.00 0.00 0.00 0.00 0.00 0.00 0.00 0.00 0.00 0.00 0.00 0.00 0.00 0.00 0.00 0.00 0.00 0.00 0.00 0.00 0.00 0.00 0.00 0.00 0.00 0.00 0.00 0.00 0.00 0.00 0.00 0.00 0.00 0.00 0.00
0.00 0.00 0.00 0.00 0.00 0.00 0.00 0.00 0.00 0.00 0.00 0.00 0.00 0.00 0.00 0.00 0.00 0.00 0.00 0.00 0.00 0.00 0.00 0.00 0.00 0.00 0.00 0.00 0.00 0.00 0.00 0.00 0.00 0.00 0.00 0.00 0.00 0.00
0.01 0.00 0.00 0.00 0.00 0.00 0.00 0.00 0.00 0.00 0.00 0.00 0.00 0.00 0.00 0.00 0.00 0.00 0.00 0.00 0.00 0.00 0.00 0.00 0.00 0.00 0.00 0.00 0.00 0.00 0.00 0.00 0.00 0.00 0.00 0.00 0.00 0.00
0.01 0.00 0.00 0.00 0.00 0.00 0.00 0.00 0.00 0.00 0.00 0.00 0.00 0.00 0.00 0.00 0.00 0.00 0.00 0.00 0.00 0.00 0.00 0.00 0.00 0.00 0.00 0.01 0.01 0.00 0.00 0.00 0.00 0.00 0.00 0.00 0.00 0.00
0.00 0.00 0.00 0.00 0.00 0.00 0.00 0.00 0.00 0.00 0.00 0.00 0.00 0.00 0.00 0.00 0.00 0.00 0.00 0.00 0.00 0.00 0.00 0.00 0.00 0.00 0.00 0.00 0.00 0.00 0.00 0.00 0.00 0.00 0.00 0.00 0.00 0.00
0.00 0.00 0.00 0.00 0.00 0.00 0.00 0.00 0.00 0.00 0.00 0.00 0.00 0.00 0.00 0.00 0.00 0.00 0.00 0.00 0.00 0.00 0.00 0.00 0.00 0.00 0.00 0.01 0.01 0.00 0.00 0.00 0.00 0.00 0.00 0.00 0.01 0.01
0.00 0.00 0.00 0.00 0.00 0.00 0.00 0.00 0.00 0.00 0.00 0.00 0.00 0.00 0.00 0.00 0.00 0.00 0.00 0.00 0.00 0.00 0.00 0.00 0.00 0.00 0.00 0.00 0.01 0.00 0.00 0.00 0.00 0.00 0.00 0.00 0.00 0.00

GEFSNE_prec_meanprecacc_012.txt.gz
Total_Precipitation_Accumulation
0.06 0.06 0.06 0.04 0.03 0.01 0.01 0.00 0.00 0.00 0.00 0.00 0.00 0.00 0.00 0.01 0.02 0.01 0.01 0.01 0.01 0.01 0.01 0.01 0.01 0.01 0.00 0.00 0.00 0.00 0.00 0.00 0.00 0.00 0.00 0.00 0.00 0.00
0.09 0.09 0.08 0.06 0.04 0.02 0.01 0.01 0.00 0.00 0.00 0.00 0.00 0.00 0.00 0.01 0.01 0.01 0.00 0.00 0.00 0.00 0.00 0.00 0.00 0.00 0.00 0.00 0.00 0.00 0.00 0.00 0.00 0.00 0.00 0.00 0.00 0.00
0.13 0.13 0.13 0.09 0.05 0.04 0.02 0.01 0.01 0.00 0.00 0.00 0.00 0.00 0.00 0.00 0.00 0.00 0.00 0.00 0.00 0.00 0.00 0.00 0.00 0.00 0.00 0.00 0.00 0.00 0.00 0.00 0.00 0.00 0.00 0.00 0.00 0.00
0.24 0.20 0.18 0.13 0.08 0.04 0.03 0.02 0.01 0.00 0.00 0.00 0.00 0.00 0.00 0.00 0.00 0.00 0.00 0.00 0.00 0.00 0.00 0.00 0.00 0.00 0.00 0.00 0.00 0.00 0.00 0.00 0.00 0.00 0.00 0.00 0.00 0.00
0.43 0.33 0.23 0.14 0.08 0.05 0.04 0.03 0.02 0.01 0.01 0.01 0.01 0.01 0.00 0.00 0.01 0.00 0.00 0.00 0.00 0.01 0.01 0.01 0.00 0.00 0.00 0.00 0.00 0.00 0.00 0.00 0.00 0.00 0.00 0.00 0.00 0.00
0.49 0.40 0.30 0.18 0.10 0.06 0.04 0.03 0.02 0.02 0.02 0.03 0.03 0.02 0.02 0.02 0.03 0.04 0.03 0.02 0.01 0.01 0.01 0.01 0.01 0.00 0.00 0.00 0.00 0.00 0.00 0.00 0.00 0.00 0.00 0.00 0.00 0.00
0.33 0.29 0.24 0.20 0.15 0.09 0.06 0.04 0.03 0.02 0.02 0.03 0.03 0.03 0.03 0.04 0.06 0.07 0.09 0.09 0.09 0.07 0.03 0.01 0.00 0.00 0.00 0.00 0.00 0.00 0.00 0.00 0.00 0.00 0.00 0.00 0.00 0.00
0.22 0.20 0.16 0.13 0.10 0.09 0.08 0.06 0.05 0.04 0.04 0.04 0.03 0.03 0.02 0.02 0.04 0.08 0.11 0.11 0.13 0.14 0.13 0.09 0.04 0.01 0.00 0.00 0.00 0.00 0.00 0.00 0.00 0.00 0.00 0.00 0.00 0.00
0.07 0.08 0.08 0.06 0.04 0.05 0.05 0.05 0.04 0.04 0.04 0.06 0.08 0.08 0.06 0.04 0.03 0.04 0.08 0.14 0.15 0.13 0.16 0.19 0.16 0.09 0.03 0.01 0.00 0.00 0.00 0.00 0.00 0.00 0.00 0.00 0.00 0.00
0.01 0.02 0.02 0.03 0.02 0.02 0.03 0.03 0.02 0.02 0.03 0.05 0.08 0.10 0.09 0.07 0.06 0.06 0.06 0.09 0.14 0.16 0.16 0.18 0.16 0.13 0.08 0.04 0.01 0.00 0.00 0.00 0.00 0.00 0.00 0.00 0.00 0.00
0.00 0.00 0.01 0.01 0.01 0.00 0.01 0.02 0.02 0.03 0.03 0.04 0.05 0.06 0.07 0.06 0.05 0.05 0.06 0.07 0.09 0.10 0.13 0.15 0.13 0.09 0.06 0.04 0.02 0.01 0.00 0.00 0.00 0.00 0.00 0.00 0.00 0.00
0.00 0.00 0.01 0.02 0.01 0.00 0.00 0.01 0.02 0.02 0.01 0.01 0.01 0.01 0.01 0.02 0.02 0.04 0.06 0.07 0.07 0.07 0.05 0.05 0.06 0.05 0.04 0.02 0.00 0.00 0.00 0.00 0.00 0.00 0.00 0.00 0.00 0.00
0.00 0.00 0.01 0.03 0.02 0.01 0.00 0.00 0.01 0.01 0.00 0.00 0.00 0.00 0.00 0.00 0.00 0.01 0.01 0.02 0.02 0.02 0.01 0.01 0.01 0.01 0.01 0.00 0.00 0.00 0.00 0.00 0.00 0.00 0.00 0.00 0.00 0.00
0.00 0.00 0.01 0.02 0.01 0.01 0.00 0.00 0.00 0.00 0.00 0.00 0.00 0.00 0.00 0.00 0.00 0.00 0.00 0.00 0.00 0.00 0.00 0.00 0.00 0.00 0.00 0.00 0.00 0.00 0.00 0.00 0.00 0.00 0.00 0.00 0.00 0.00
0.02 0.02 0.01 0.00 0.00 0.00 0.00 0.00 0.00 0.00 0.00 0.00 0.00 0.00 0.00 0.00 0.00 0.00 0.00 0.00 0.00 0.00 0.00 0.00 0.00 0.00 0.00 0.00 0.00 0.00 0.00 0.00 0.00 0.00 0.00 0.00 0.00 0.00
0.04 0.04 0.01 0.00 0.00 0.00 0.00 0.00 0.00 0.00 0.00 0.00 0.00 0.00 0.00 0.00 0.00 0.00 0.00 0.00 0.00 0.00 0.00 0.00 0.00 0.00 0.00 0.00 0.00 0.00 0.00 0.00 0.00 0.00 0.00 0.00 0.00 0.00
0.03 0.01 0.00 0.00 0.00 0.00 0.00 0.00 0.00 0.00 0.00 0.00 0.00 0.00 0.00 0.00 0.00 0.00 0.00 0.00 0.00 0.00 0.00 0.00 0.00 0.00 0.00 0.00 0.00 0.00 0.00 0.00 0.00 0.00 0.00 0.00 0.00 0.00
0.03 0.01 0.00 0.00 0.00 0.00 0.00 0.00 0.00 0.00 0.00 0.00 0.00 0.00 0.00 0.00 0.00 0.00 0.00 0.00 0.00 0.00 0.00 0.00 0.00 0.00 0.00 0.00 0.00 0.00 0.00 0.00 0.00 0.00 0.00 0.00 0.00 0.00
0.01 0.00 0.00 0.00 0.00 0.00 0.00 0.00 0.00 0.00 0.00 0.00 0.00 0.00 0.00 0.00 0.00 0.00 0.00 0.00 0.00 0.00 0.00 0.00 0.00 0.00 0.00 0.00 0.00 0.00 0.00 0.00 0.00 0.00 0.00 0.00 0.00 0.00
0.01 0.00 0.00 0.00 0.00 0.00 0.00 0.00 0.00 0.00 0.00 0.00 0.00 0.00 0.00 0.00 0.00 0.00 0.00 0.00 0.00 0.00 0.00 0.00 0.00 0.00 0.01 0.01 0.01 0.00 0.00 0.00 0.00 0.00 0.00 0.00 0.00 0.00
0.00 0.00 0.00 0.00 0.00 0.00 0.00 0.00 0.00 0.00 0.00 0.00 0.00 0.00 0.00 0.00 0.00 0.00 0.00 0.00 0.00 0.00 0.00 0.00 0.00 0.00 0.00 0.00 0.00 0.00 0.00 0.00 0.00 0.00 0.00 0.00 0.00 0.00
0.00 0.00 0.00 0.00 0.00 0.00 0.00 0.00 0.00 0.00 0.00 0.00 0.00 0.00 0.00 0.00 0.00 0.00 0.00 0.00 0.00 0.00 0.00 0.00 0.00 0.00 0.00 0.01 0.01 0.00 0.00 0.00 0.00 0.00 0.00 0.00 0.01 0.02
0.00 0.00 0.00 0.00 0.00 0.00 0.00 0.00 0.00 0.00 0.00 0.00 0.00 0.00 0.00 0.00 0.00 0.00 0.00 0.00 0.00 0.00 0.00 0.00 0.00 0.00 0.00 0.00 0.01 0.00 0.00 0.00 0.00 0.00 0.00 0.00 0.00 0.00

GEFSNE_prec_meanprecacc_018.txt.gz
Total_Precipitation_Accumulation
0.07 0.07 0.07 0.06 0.05 0.04 0.04 0.04 0.05 0.04 0.02 0.01 0.01 0.01 0.01 0.03 0.06 0.06 0.06 0.04 0.04 0.05 0.09 0.13 0.16 0.16 0.15 0.12 0.10 0.07 0.05 0.02 0.01 0.00 0.00 0.00 0.00 0.00
0.11 0.11 0.11 0.10 0.09 0.07 0.06 0.05 0.04 0.04 0.03 0.01 0.01 0.01 0.01 0.03 0.05 0.07 0.07 0.06 0.04 0.04 0.06 0.09 0.13 0.15 0.15 0.12 0.09 0.05 0.03 0.01 0.00 0.00 0.00 0.00 0.00 0.00
0.15 0.16 0.17 0.16 0.14 0.12 0.09 0.07 0.05 0.05 0.04 0.02 0.01 0.01 0.02 0.03 0.04 0.04 0.05 0.04 0.03 0.04 0.05 0.06 0.09 0.11 0.12 0.11 0.08 0.05 0.03 0.01 0.00 0.00 0.00 0.00 0.00 0.00
0.29 0.27 0.26 0.27 0.26 0.22 0.17 0.12 0.08 0.06 0.06 0.04 0.02 0.01 0.02 0.04 0.05 0.05 0.03 0.01 0.01 0.02 0.03 0.04 0.05 0.07 0.07 0.07 0.06 0.04 0.02 0.01 0.00 0.00 0.00 0.00 0.00 0.00
0.56 0.52 0.46 0.41 0.39 0.36 0.31 0.24 0.16 0.11 0.08 0.07 0.04 0.02 0.02 0.04 0.06 0.05 0.02 0.01 0.01 0.02 0.03 0.03 0.02 0.03 0.03 0.03 0.03 0.02 0.02 0.01 0.00 0.00 0.00 0.00 0.00 0.00
0.69 0.68 0.66 0.59 0.52 0.46 0.43 0.38 0.29 0.21 0.14 0.11 0.09 0.05 0.03 0.05 0.09 0.08 0.05 0.03 0.02 0.02 0.03 0.02 0.02 0.01 0.01 0.01 0.01 0.01 0.01 0.01 0.00 0.00 0.00 0.00 0.00 0.00
0.47 0.50 0.54 0.58 0.59 0.54 0.49 0.46 0.39 0.32 0.24 0.17 0.12 0.08 0.05 0.06 0.11 0.12 0.13 0.10 0.10 0.08 0.05 0.02 0.01 0.01 0.01 0.01 0.01 0.01 0.00 0.00 0.00 0.00 0.00 0.00 0.00 0.00
0.27 0.29 0.31 0.36 0.41 0.46 0.47 0.46 0.45 0.39 0.31 0.23 0.15 0.10 0.06 0.05 0.08 0.13 0.15 0.15 0.14 0.15 0.14 0.10 0.04 0.01 0.01 0.00 0.00 0.00 0.00 0.00 0.00 0.00 0.00 0.00 0.00 0.00
0.09 0.11 0.13 0.15 0.18 0.23 0.27 0.29 0.33 0.34 0.30 0.25 0.22 0.17 0.11 0.07 0.06 0.08 0.14 0.19 0.17 0.15 0.17 0.20 0.16 0.09 0.04 0.01 0.00 0.00 0.00 0.00 0.00 0.00 0.00 0.00 0.00 0.00
0.02 0.03 0.04 0.06 0.07 0.10 0.13 0.15 0.17 0.20 0.21 0.19 0.22 0.23 0.17 0.12 0.08 0.08 0.11 0.15 0.20 0.22 0.23 0.25 0.22 0.16 0.10 0.05 0.03 0.01 0.00 0.00 0.00 0.00 0.00 0.00 0.00 0.00
0.01 0.05 0.05 0.02 0.03 0.03 0.06 0.09 0.10 0.15 0.15 0.15 0.15 0.16 0.16 0.14 0.11 0.09 0.11 0.14 0.19 0.25 0.30 0.33 0.30 0.21 0.14 0.09 0.06 0.03 0.01 0.00 0.00 0.00 0.00 0.00 0.00 0.00
0.01 0.05 0.09 0.06 0.03 0.02 0.03 0.05 0.06 0.08 0.07 0.06 0.05 0.05 0.05 0.06 0.09 0.12 0.15 0.15 0.15 0.20 0.24 0.29 0.34 0.29 0.22 0.13 0.06 0.03 0.02 0.01 0.00 0.00 0.00 0.00 0.00 0.00
0.01 0.05 0.09 0.06 0.03 0.02 0.01 0.02 0.04 0.02 0.01 0.01 0.02 0.02 0.02 0.02 0.04 0.08 0.12 0.13 0.13 0.15 0.16 0.18 0.24 0.27 0.22 0.15 0.07 0.03 0.02 0.01 0.01 0.00 0.00 0.00 0.00 0.00
0.02 0.03 0.05 0.03 0.02 0.01 0.00 0.00 0.00 0.00 0.00 0.00 0.00 0.00 0.00 0.01 0.01 0.03 0.05 0.07 0.08 0.12 0.12 0.10 0.13 0.15 0.14 0.11 0.07 0.02 0.01 0.01 0.00 0.00 0.00 0.00 0.00 0.00
0.13 0.10 0.02 0.00 0.00 0.00 0.00 0.00 0.00 0.00 0.00 0.00 0.00 0.00 0.00 0.00 0.00 0.00 0.01 0.02 0.02 0.03 0.05 0.05 0.06 0.08 0.07 0.06 0.03 0.02 0.01 0.00 0.00 0.00 0.00 0.00 0.00 0.00
0.12 0.09 0.02 0.00 0.00 0.00 0.00 0.00 0.00 0.00 0.00 0.00 0.00 0.00 0.00 0.00 0.00 0.00 0.00 0.00 0.00 0.01 0.01 0.01 0.02 0.02 0.02 0.02 0.01 0.00 0.00 0.00 0.00 0.00 0.00 0.00 0.00 0.00
0.06 0.02 0.00 0.00 0.00 0.00 0.00 0.00 0.00 0.00 0.00 0.00 0.00 0.00 0.00 0.00 0.00 0.00 0.00 0.00 0.00 0.00 0.00 0.00 0.00 0.00 0.00 0.00 0.00 0.00 0.00 0.00 0.00 0.00 0.00 0.00 0.00 0.00
0.04 0.01 0.00 0.00 0.00 0.00 0.00 0.00 0.00 0.00 0.00 0.00 0.00 0.00 0.00 0.00 0.00 0.00 0.00 0.00 0.00 0.00 0.00 0.00 0.00 0.00 0.00 0.00 0.00 0.00 0.00 0.00 0.00 0.00 0.00 0.00 0.00 0.00
0.01 0.01 0.00 0.00 0.00 0.00 0.00 0.00 0.00 0.00 0.00 0.00 0.00 0.00 0.00 0.00 0.00 0.00 0.00 0.00 0.00 0.00 0.00 0.00 0.00 0.00 0.00 0.00 0.00 0.00 0.00 0.00 0.00 0.00 0.00 0.00 0.00 0.00
0.01 0.00 0.00 0.00 0.00 0.00 0.00 0.00 0.00 0.00 0.00 0.00 0.00 0.00 0.00 0.00 0.00 0.00 0.00 0.00 0.00 0.00 0.00 0.00 0.00 0.00 0.01 0.01 0.01 0.00 0.00 0.00 0.00 0.00 0.00 0.00 0.00 0.00
0.00 0.00 0.00 0.00 0.00 0.00 0.00 0.00 0.00 0.00 0.00 0.00 0.00 0.00 0.00 0.00 0.00 0.00 0.00 0.00 0.00 0.00 0.00 0.00 0.00 0.00 0.00 0.00 0.00 0.00 0.00 0.00 0.00 0.00 0.00 0.00 0.00 0.00
0.00 0.00 0.00 0.00 0.00 0.00 0.00 0.00 0.00 0.00 0.00 0.00 0.00 0.00 0.00 0.00 0.00 0.00 0.00 0.00 0.00 0.00 0.00 0.00 0.00 0.00 0.00 0.01 0.01 0.00 0.00 0.00 0.00 0.00 0.00 0.00 0.01 0.02
0.00 0.00 0.00 0.00 0.00 0.00 0.00 0.00 0.00 0.00 0.00 0.00 0.00 0.00 0.00 0.00 0.00 0.00 0.00 0.00 0.00 0.00 0.00 0.00 0.00 0.00 0.00 0.00 0.01 0.00 0.00 0.00 0.00 0.00 0.00 0.00 0.00 0.00

GEFSNE_prec_meanprecacc_024.txt.gz
Total_Precipitation_Accumulation
0.10 0.10 0.11 0.11 0.10 0.08 0.07 0.07 0.08 0.07 0.03 0.02 0.02 0.03 0.04 0.06 0.09 0.08 0.06 0.05 0.05 0.07 0.11 0.16 0.21 0.23 0.23 0.24 0.27 0.32 0.29 0.17 0.08 0.05 0.07 0.07 0.05 0.02
0.14 0.15 0.16 0.16 0.16 0.14 0.11 0.09 0.08 0.07 0.05 0.03 0.02 0.02 0.04 0.06 0.09 0.09 0.08 0.06 0.05 0.05 0.07 0.12 0.18 0.25 0.29 0.30 0.27 0.25 0.25 0.21 0.15 0.12 0.13 0.11 0.06 0.02
0.17 0.20 0.21 0.20 0.20 0.18 0.16 0.13 0.10 0.09 0.07 0.03 0.02 0.02 0.05 0.08 0.09 0.09 0.09 0.06 0.04 0.04 0.06 0.09 0.15 0.22 0.30 0.35 0.35 0.32 0.28 0.23 0.19 0.17 0.15 0.09 0.03 0.01
0.31 0.30 0.30 0.31 0.31 0.27 0.23 0.18 0.13 0.10 0.09 0.07 0.03 0.02 0.04 0.09 0.13 0.14 0.11 0.07 0.04 0.04 0.05 0.07 0.11 0.17 0.25 0.32 0.35 0.35 0.34 0.31 0.26 0.19 0.12 0.06 0.02 0.01
0.59 0.56 0.51 0.46 0.44 0.41 0.36 0.29 0.20 0.14 0.11 0.10 0.07 0.04 0.05 0.10 0.16 0.18 0.15 0.10 0.06 0.06 0.06 0.06 0.07 0.11 0.17 0.22 0.28 0.31 0.31 0.31 0.28 0.22 0.13 0.06 0.02 0.01
0.71 0.72 0.72 0.68 0.61 0.55 0.50 0.42 0.32 0.23 0.18 0.16 0.14 0.10 0.08 0.12 0.22 0.23 0.18 0.13 0.08 0.06 0.06 0.05 0.06 0.07 0.09 0.12 0.15 0.20 0.25 0.29 0.29 0.23 0.14 0.06 0.02 0.00
0.48 0.53 0.59 0.68 0.73 0.69 0.63 0.55 0.44 0.36 0.28 0.23 0.19 0.17 0.13 0.15 0.25 0.28 0.26 0.20 0.17 0.13 0.08 0.04 0.03 0.03 0.06 0.09 0.13 0.17 0.20 0.21 0.19 0.15 0.10 0.05 0.02 0.00
0.29 0.32 0.35 0.45 0.52 0.59 0.64 0.61 0.59 0.52 0.44 0.36 0.29 0.24 0.19 0.18 0.25 0.35 0.31 0.25 0.23 0.21 0.18 0.14 0.08 0.06 0.06 0.06 0.10 0.12 0.14 0.13 0.12 0.09 0.07 0.04 0.03 0.01
0.13 0.16 0.17 0.22 0.27 0.32 0.39 0.44 0.53 0.61 0.62 0.56 0.52 0.42 0.31 0.26 0.27 0.33 0.35 0.31 0.25 0.22 0.21 0.25 0.23 0.16 0.11 0.10 0.12 0.10 0.09 0.07 0.06 0.05 0.05 0.04 0.03 0.02
0.09 0.09 0.08 0.11 0.15 0.17 0.21 0.27 0.35 0.49 0.62 0.66 0.69 0.62 0.47 0.35 0.33 0.38 0.43 0.38 0.33 0.31 0.27 0.29 0.28 0.25 0.20 0.17 0.15 0.10 0.06 0.04 0.03 0.03 0.03 0.03 0.02 0.02
0.10 0.11 0.07 0.05 0.09 0.07 0.10 0.16 0.21 0.34 0.44 0.52 0.56 0.55 0.51 0.46 0.44 0.45 0.47 0.46 0.47 0.46 0.40 0.39 0.36 0.27 0.23 0.21 0.19 0.12 0.06 0.03 0.03 0.02 0.02 0.02 0.02 0.01
0.06 0.08 0.12 0.08 0.06 0.03 0.05 0.08 0.11 0.18 0.21 0.25 0.29 0.34 0.37 0.39 0.45 0.52 0.56 0.50 0.50 0.52 0.46 0.39 0.42 0.35 0.29 0.22 0.14 0.09 0.06 0.04 0.02 0.01 0.01 0.01 0.01 0.01
0.05 0.07 0.10 0.08 0.04 0.03 0.02 0.03 0.06 0.05 0.06 0.10 0.15 0.22 0.29 0.35 0.39 0.48 0.53 0.50 0.47 0.48 0.43 0.34 0.37 0.35 0.28 0.21 0.13 0.07 0.04 0.02 0.01 0.01 0.00 0.00 0.00 0.00
0.05 0.04 0.05 0.03 0.02 0.01 0.00 0.01 0.01 0.01 0.01 0.03 0.06 0.10 0.18 0.26 0.33 0.39 0.43 0.44 0.43 0.43 0.36 0.28 0.27 0.27 0.22 0.17 0.12 0.06 0.03 0.02 0.01 0.01 0.00 0.00 0.00 0.00
0.16 0.11 0.02 0.00 0.00 0.00 0.00 0.00 0.00 0.00 0.00 0.01 0.03 0.05 0.08 0.13 0.16 0.21 0.24 0.26 0.25 0.24 0.23 0.21 0.21 0.21 0.18 0.14 0.09 0.06 0.03 0.02 0.01 0.01 0.00 0.00 0.00 0.00
0.13 0.09 0.02 0.00 0.00 0.00 0.00 0.00 0.00 0.00 0.00 0.00 0.01 0.02 0.03 0.04 0.06 0.08 0.10 0.11 0.11 0.12 0.12 0.12 0.13 0.14 0.14 0.13 0.10 0.08 0.05 0.03 0.01 0.01 0.00 0.00 0.00 0.00
0.06 0.02 0.00 0.00 0.00 0.00 0.00 0.00 0.00 0.00 0.00 0.00 0.00 0.00 0.01 0.01 0.02 0.02 0.03 0.04 0.05 0.05 0.05 0.06 0.06 0.06 0.07 0.07 0.08 0.07 0.05 0.03 0.01 0.00 0.00 0.00 0.00 0.00
0.04 0.01 0.00 0.00 0.00 0.00 0.00 0.00 0.00 0.00 0.00 0.00 0.00 0.00 0.00 0.00 0.00 0.00 0.01 0.01 0.02 0.02 0.02 0.02 0.02 0.02 0.03 0.03 0.03 0.02 0.02 0.01 0.00 0.00 0.00 0.00 0.00 0.00
0.01 0.01 0.00 0.00 0.00 0.00 0.00 0.00 0.00 0.00 0.00 0.00 0.00 0.00 0.00 0.00 0.00 0.00 0.00 0.00 0.00 0.00 0.00 0.00 0.00 0.00 0.01 0.01 0.01 0.00 0.00 0.00 0.00 0.00 0.00 0.00 0.00 0.00
0.01 0.00 0.00 0.00 0.00 0.00 0.00 0.00 0.00 0.00 0.00 0.00 0.00 0.00 0.00 0.00 0.00 0.00 0.00 0.00 0.00 0.00 0.00 0.00 0.00 0.00 0.01 0.01 0.01 0.00 0.00 0.00 0.00 0.00 0.00 0.00 0.00 0.00
0.00 0.00 0.00 0.00 0.00 0.00 0.00 0.00 0.00 0.00 0.00 0.00 0.00 0.00 0.00 0.00 0.00 0.00 0.00 0.00 0.00 0.00 0.00 0.00 0.00 0.00 0.00 0.00 0.00 0.00 0.00 0.00 0.00 0.00 0.00 0.00 0.00 0.00
0.00 0.00 0.00 0.00 0.00 0.00 0.00 0.00 0.00 0.00 0.00 0.00 0.00 0.00 0.00 0.00 0.00 0.00 0.00 0.00 0.00 0.00 0.00 0.00 0.00 0.00 0.00 0.01 0.01 0.00 0.00 0.00 0.00 0.00 0.00 0.00 0.01 0.02
0.00 0.00 0.00 0.00 0.00 0.00 0.00 0.00 0.00 0.00 0.00 0.00 0.00 0.00 0.00 0.00 0.00 0.00 0.00 0.00 0.00 0.00 0.00 0.00 0.00 0.00 0.00 0.00 0.01 0.00 0.00 0.00 0.00 0.00 0.00 0.00 0.00 0.00

GEFSNE_prec_meanprecacc_030.txt.gz
Total_Precipitation_Accumulation
0.13 0.12 0.12 0.12 0.12 0.11 0.11 0.12 0.13 0.09 0.04 0.03 0.04 0.06 0.08 0.11 0.14 0.13 0.11 0.10 0.11 0.13 0.18 0.24 0.28 0.31 0.37 0.47 0.61 0.75 0.69 0.43 0.21 0.11 0.10 0.10 0.08 0.04
0.16 0.16 0.17 0.17 0.18 0.17 0.16 0.14 0.13 0.11 0.07 0.03 0.05 0.07 0.09 0.11 0.15 0.15 0.14 0.13 0.11 0.11 0.12 0.17 0.24 0.31 0.38 0.44 0.48 0.53 0.62 0.61 0.45 0.29 0.23 0.21 0.15 0.09
0.17 0.21 0.22 0.22 0.22 0.21 0.20 0.18 0.15 0.14 0.11 0.04 0.03 0.07 0.12 0.15 0.16 0.15 0.15 0.12 0.09 0.09 0.09 0.12 0.19 0.27 0.36 0.45 0.48 0.50 0.55 0.58 0.54 0.45 0.40 0.31 0.19 0.09
0.32 0.32 0.33 0.35 0.36 0.32 0.29 0.24 0.20 0.16 0.14 0.09 0.04 0.05 0.12 0.18 0.23 0.21 0.17 0.13 0.09 0.08 0.08 0.09 0.13 0.20 0.30 0.38 0.45 0.48 0.53 0.57 0.56 0.49 0.42 0.36 0.25 0.13
0.62 0.60 0.57 0.55 0.53 0.50 0.46 0.38 0.29 0.21 0.17 0.14 0.09 0.06 0.10 0.18 0.27 0.28 0.22 0.16 0.11 0.10 0.09 0.08 0.08 0.13 0.20 0.28 0.36 0.41 0.43 0.45 0.48 0.54 0.55 0.45 0.31 0.21
0.74 0.77 0.81 0.81 0.76 0.69 0.64 0.52 0.39 0.29 0.23 0.20 0.16 0.12 0.11 0.17 0.31 0.34 0.28 0.19 0.13 0.09 0.09 0.07 0.06 0.08 0.10 0.15 0.20 0.28 0.40 0.52 0.57 0.61 0.61 0.50 0.34 0.28
0.50 0.56 0.67 0.80 0.85 0.84 0.79 0.66 0.51 0.41 0.32 0.26 0.22 0.18 0.16 0.20 0.31 0.37 0.36 0.29 0.24 0.18 0.11 0.05 0.04 0.04 0.06 0.11 0.18 0.25 0.34 0.41 0.48 0.53 0.55 0.52 0.40 0.31
0.31 0.34 0.39 0.52 0.58 0.66 0.73 0.71 0.69 0.61 0.51 0.42 0.34 0.27 0.23 0.22 0.29 0.41 0.40 0.34 0.30 0.26 0.21 0.16 0.09 0.07 0.06 0.08 0.13 0.19 0.26 0.31 0.35 0.38 0.40 0.41 0.37 0.30
0.16 0.17 0.19 0.27 0.31 0.36 0.44 0.50 0.60 0.69 0.71 0.65 0.59 0.50 0.36 0.29 0.30 0.37 0.41 0.38 0.31 0.28 0.28 0.31 0.27 0.19 0.13 0.13 0.17 0.18 0.19 0.21 0.23 0.25 0.25 0.27 0.26 0.24
0.12 0.11 0.09 0.14 0.20 0.20 0.25 0.32 0.42 0.57 0.73 0.78 0.80 0.72 0.53 0.38 0.35 0.40 0.48 0.45 0.40 0.40 0.37 0.38 0.38 0.32 0.28 0.26 0.25 0.20 0.16 0.15 0.15 0.16 0.17 0.17 0.16 0.15
0.10 0.12 0.08 0.06 0.12 0.08 0.10 0.18 0.24 0.39 0.51 0.62 0.66 0.62 0.55 0.49 0.46 0.46 0.52 0.56 0.59 0.59 0.53 0.50 0.50 0.41 0.39 0.42 0.41 0.30 0.19 0.14 0.12 0.12 0.11 0.11 0.11 0.11
0.06 0.08 0.13 0.10 0.08 0.05 0.05 0.09 0.13 0.21 0.25 0.31 0.35 0.40 0.42 0.42 0.47 0.54 0.61 0.62 0.65 0.71 0.64 0.53 0.58 0.49 0.51 0.51 0.41 0.29 0.21 0.18 0.14 0.11 0.09 0.08 0.07 0.06
0.05 0.07 0.10 0.09 0.05 0.03 0.02 0.04 0.08 0.07 0.09 0.15 0.21 0.28 0.36 0.41 0.46 0.54 0.62 0.64 0.65 0.67 0.62 0.49 0.52 0.48 0.44 0.48 0.40 0.29 0.19 0.14 0.12 0.11 0.09 0.08 0.06 0.05
0.05 0.04 0.05 0.04 0.02 0.01 0.01 0.01 0.01 0.01 0.02 0.06 0.10 0.16 0.26 0.37 0.46 0.53 0.59 0.63 0.67 0.67 0.55 0.42 0.39 0.36 0.30 0.28 0.30 0.27 0.19 0.13 0.09 0.07 0.06 0.06 0.05 0.04
0.16 0.11 0.02 0.00 0.00 0.00 0.00 0.00 0.00 0.00 0.01 0.02 0.06 0.11 0.18 0.28 0.34 0.40 0.46 0.50 0.53 0.58 0.53 0.43 0.37 0.32 0.26 0.20 0.16 0.16 0.16 0.14 0.11 0.08 0.06 0.05 0.03 0.02
0.13 0.09 0.02 0.00 0.00 0.00 0.00 0.00 0.00 0.00 0.00 0.01 0.03 0.06 0.10 0.16 0.22 0.29 0.36 0.40 0.41 0.50 0.55 0.49 0.42 0.35 0.30 0.23 0.16 0.14 0.12 0.11 0.08 0.06 0.06 0.04 0.03 0.02
0.06 0.02 0.00 0.00 0.00 0.00 0.00 0.00 0.00 0.00 0.00 0.00 0.01 0.03 0.06 0.10 0.16 0.22 0.29 0.33 0.35 0.41 0.51 0.55 0.46 0.37 0.32 0.27 0.22 0.17 0.11 0.08 0.06 0.04 0.03 0.03 0.02 0.01
0.04 0.01 0.00 0.00 0.00 0.00 0.00 0.00 0.00 0.00 0.00 0.00 0.00 0.01 0.03 0.07 0.11 0.16 0.21 0.26 0.29 0.31 0.36 0.45 0.43 0.35 0.33 0.34 0.26 0.16 0.08 0.06 0.04 0.03 0.02 0.02 0.01 0.01
0.01 0.01 0.00 0.00 0.00 0.00 0.00 0.00 0.00 0.00 0.00 0.00 0.00 0.01 0.02 0.04 0.06 0.10 0.15 0.19 0.23 0.25 0.27 0.30 0.32 0.29 0.24 0.26 0.28 0.16 0.08 0.04 0.03 0.02 0.02 0.01 0.01 0.00
0.01 0.00 0.00 0.00 0.00 0.00 0.00 0.00 0.00 0.00 0.00 0.00 0.00 0.00 0.01 0.02 0.03 0.06 0.09 0.13 0.16 0.18 0.20 0.22 0.24 0.24 0.17 0.11 0.10 0.10 0.07 0.04 0.02 0.01 0.01 0.01 0.00 0.00
0.00 0.00 0.00 0.00 0.00 0.00 0.00 0.00 0.00 0.00 0.00 0.00 0.00 0.00 0.00 0.01 0.01 0.03 0.04 0.07 0.09 0.11 0.13 0.15 0.16 0.16 0.13 0.07 0.04 0.03 0.03 0.02 0.01 0.01 0.01 0.01 0.01 0.00
0.00 0.00 0.00 0.00 0.00 0.00 0.00 0.00 0.00 0.00 0.00 0.00 0.00 0.00 0.00 0.00 0.00 0.01 0.01 0.03 0.04 0.05 0.06 0.07 0.07 0.08 0.08 0.07 0.05 0.03 0.01 0.00 0.00 0.00 0.00 0.01 0.01 0.02
0.00 0.00 0.00 0.00 0.00 0.00 0.00 0.00 0.00 0.00 0.00 0.00 0.00 0.00 0.00 0.00 0.00 0.00 0.00 0.01 0.01 0.02 0.02 0.02 0.02 0.02 0.02 0.03 0.03 0.02 0.01 0.00 0.00 0.00 0.00 0.00 0.00 0.00

GEFSNE_prec_meanprecacc_036.txt.gz
Total_Precipitation_Accumulation
0.15 0.14 0.15 0.14 0.13 0.13 0.13 0.15 0.19 0.14 0.05 0.03 0.05 0.06 0.08 0.12 0.16 0.16 0.16 0.18 0.21 0.24 0.26 0.27 0.30 0.35 0.49 0.80 1.31 1.63 1.50 0.98 0.46 0.22 0.17 0.16 0.12 0.08
0.19 0.20 0.20 0.21 0.20 0.19 0.19 0.17 0.17 0.18 0.11 0.04 0.05 0.07 0.09 0.11 0.16 0.17 0.17 0.18 0.18 0.20 0.22 0.23 0.26 0.33 0.41 0.53 0.79 1.23 1.48 1.38 0.92 0.52 0.36 0.29 0.20 0.12
0.23 0.27 0.28 0.27 0.27 0.24 0.23 0.22 0.19 0.19 0.16 0.06 0.03 0.07 0.12 0.15 0.17 0.17 0.18 0.16 0.14 0.16 0.19 0.20 0.23 0.29 0.38 0.49 0.58 0.83 1.23 1.40 1.29 0.94 0.68 0.47 0.27 0.13
0.40 0.39 0.39 0.40 0.41 0.37 0.35 0.30 0.26 0.22 0.20 0.13 0.05 0.05 0.12 0.19 0.25 0.24 0.21 0.17 0.13 0.14 0.15 0.17 0.18 0.23 0.32 0.41 0.49 0.60 0.86 1.18 1.33 1.19 0.93 0.68 0.43 0.23
0.68 0.67 0.64 0.60 0.59 0.57 0.54 0.45 0.35 0.26 0.22 0.18 0.11 0.07 0.11 0.21 0.31 0.32 0.28 0.20 0.14 0.15 0.15 0.15 0.15 0.17 0.22 0.29 0.38 0.46 0.55 0.73 0.98 1.19 1.22 0.95 0.64 0.42
0.78 0.81 0.86 0.87 0.83 0.78 0.73 0.59 0.44 0.32 0.25 0.22 0.17 0.13 0.12 0.20 0.36 0.41 0.37 0.29 0.19 0.15 0.16 0.14 0.14 0.13 0.13 0.16 0.21 0.31 0.46 0.66 0.84 1.05 1.23 1.18 0.86 0.63
0.52 0.58 0.69 0.83 0.89 0.91 0.90 0.73 0.56 0.44 0.35 0.28 0.23 0.20 0.17 0.22 0.37 0.45 0.49 0.45 0.38 0.27 0.19 0.12 0.10 0.09 0.09 0.13 0.19 0.27 0.37 0.48 0.61 0.79 1.02 1.16 1.03 0.81
0.31 0.34 0.40 0.55 0.61 0.68 0.78 0.77 0.76 0.69 0.57 0.45 0.36 0.29 0.25 0.26 0.35 0.50 0.52 0.54 0.52 0.42 0.32 0.24 0.16 0.12 0.09 0.09 0.14 0.21 0.28 0.36 0.45 0.57 0.74 0.92 0.99 0.91
0.16 0.17 0.19 0.28 0.36 0.38 0.46 0.52 0.63 0.74 0.77 0.70 0.63 0.53 0.40 0.34 0.35 0.44 0.51 0.56 0.56 0.55 0.51 0.46 0.36 0.25 0.17 0.16 0.19 0.20 0.23 0.26 0.32 0.39 0.50 0.65 0.79 0.87
0.12 0.11 0.09 0.15 0.25 0.23 0.25 0.33 0.44 0.60 0.77 0.83 0.86 0.77 0.57 0.41 0.38 0.45 0.56 0.58 0.61 0.71 0.71 0.65 0.54 0.39 0.32 0.28 0.28 0.22 0.19 0.20 0.24 0.28 0.34 0.43 0.54 0.66
0.10 0.12 0.09 0.07 0.16 0.11 0.11 0.19 0.25 0.39 0.52 0.65 0.69 0.66 0.58 0.52 0.48 0.49 0.57 0.65 0.76 0.86 0.87 0.82 0.73 0.51 0.44 0.45 0.43 0.32 0.22 0.20 0.20 0.23 0.25 0.28 0.33 0.41
0.06 0.08 0.13 0.12 0.10 0.07 0.06 0.10 0.15 0.22 0.26 0.32 0.36 0.41 0.43 0.44 0.50 0.57 0.66 0.70 0.79 0.94 0.95 0.86 0.88 0.67 0.59 0.57 0.45 0.33 0.25 0.25 0.24 0.23 0.21 0.19 0.18 0.17
0.05 0.07 0.11 0.10 0.06 0.04 0.03 0.05 0.11 0.08 0.09 0.15 0.22 0.29 0.37 0.43 0.48 0.57 0.66 0.71 0.76 0.86 0.90 0.82 0.88 0.71 0.54 0.57 0.50 0.38 0.26 0.23 0.23 0.27 0.24 0.20 0.15 0.10
0.05 0.04 0.06 0.04 0.02 0.01 0.01 0.01 0.01 0.01 0.03 0.06 0.11 0.17 0.28 0.41 0.50 0.57 0.63 0.68 0.74 0.80 0.76 0.69 0.73 0.63 0.42 0.34 0.41 0.42 0.31 0.24 0.20 0.21 0.21 0.24 0.19 0.16
0.16 0.11 0.02 0.00 0.00 0.00 0.00 0.00 0.00 0.00 0.01 0.03 0.07 0.13 0.22 0.33 0.39 0.45 0.51 0.55 0.59 0.68 0.71 0.66 0.65 0.62 0.44 0.27 0.22 0.28 0.31 0.31 0.23 0.19 0.18 0.16 0.12 0.10
0.13 0.09 0.02 0.00 0.00 0.00 0.00 0.00 0.00 0.00 0.01 0.02 0.05 0.09 0.13 0.19 0.27 0.36 0.43 0.47 0.49 0.60 0.74 0.76 0.74 0.69 0.58 0.38 0.22 0.19 0.20 0.27 0.25 0.16 0.14 0.14 0.11 0.08
0.06 0.02 0.00 0.00 0.00 0.00 0.00 0.00 0.00 0.00 0.00 0.01 0.02 0.04 0.08 0.13 0.21 0.29 0.38 0.43 0.46 0.54 0.71 0.87 0.84 0.77 0.70 0.56 0.36 0.22 0.15 0.14 0.17 0.14 0.11 0.12 0.12 0.09
0.04 0.01 0.00 0.00 0.00 0.00 0.00 0.00 0.00 0.00 0.00 0.01 0.01 0.03 0.06 0.11 0.17 0.23 0.31 0.39 0.44 0.48 0.57 0.75 0.79 0.73 0.76 0.80 0.58 0.28 0.14 0.11 0.12 0.13 0.10 0.09 0.10 0.08
0.02 0.01 0.00 0.00 0.00 0.00 0.00 0.00 0.00 0.00 0.00 0.00 0.01 0.02 0.04 0.08 0.12 0.18 0.25 0.32 0.40 0.45 0.50 0.56 0.65 0.63 0.64 0.78 0.86 0.50 0.22 0.12 0.10 0.12 0.11 0.08 0.07 0.06
0.01 0.00 0.00 0.00 0.00 0.00 0.00 0.00 0.00 0.00 0.00 0.00 0.00 0.01 0.03 0.05 0.08 0.13 0.19 0.26 0.33 0.39 0.44 0.49 0.58 0.61 0.51 0.45 0.52 0.60 0.41 0.19 0.10 0.10 0.12 0.11 0.09 0.06
0.01 0.01 0.00 0.00 0.00 0.00 0.00 0.00 0.00 0.00 0.00 0.00 0.00 0.01 0.02 0.03 0.05 0.09 0.13 0.19 0.24 0.30 0.35 0.41 0.50 0.53 0.48 0.35 0.31 0.41 0.45 0.33 0.16 0.10 0.09 0.09 0.09 0.07
0.02 0.01 0.01 0.00 0.00 0.00 0.00 0.00 0.00 0.00 0.00 0.00 0.00 0.00 0.01 0.02 0.04 0.06 0.09 0.13 0.18 0.23 0.27 0.32 0.37 0.44 0.49 0.45 0.39 0.36 0.37 0.36 0.30 0.19 0.10 0.05 0.05 0.05
0.04 0.03 0.02 0.01 0.01 0.00 0.00 0.00 0.00 0.00 0.00 0.00 0.00 0.00 0.00 0.01 0.02 0.03 0.05 0.08 0.12 0.16 0.19 0.24 0.28 0.33 0.42 0.44 0.40 0.33 0.28 0.25 0.21 0.17 0.14 0.08 0.04 0.03

GEFSNE_prec_meanprecacc_042.txt.gz
Total_Precipitation_Accumulation
0.21 0.21 0.22 0.20 0.19 0.18 0.18 0.22 0.27 0.18 0.06 0.03 0.05 0.06 0.08 0.12 0.16 0.16 0.16 0.19 0.24 0.29 0.30 0.30 0.33 0.41 0.68 1.29 2.16 2.70 2.39 1.59 0.86 0.51 0.43 0.43 0.41 0.37
0.27 0.28 0.29 0.28 0.26 0.25 0.24 0.22 0.23 0.24 0.14 0.04 0.05 0.07 0.09 0.11 0.16 0.17 0.18 0.19 0.20 0.23 0.27 0.27 0.30 0.36 0.48 0.74 1.27 2.10 2.53 2.27 1.54 0.91 0.65 0.59 0.49 0.40
0.29 0.33 0.34 0.33 0.32 0.29 0.29 0.27 0.24 0.25 0.21 0.06 0.03 0.07 0.12 0.15 0.17 0.17 0.18 0.17 0.16 0.18 0.23 0.26 0.28 0.33 0.43 0.58 0.80 1.32 2.07 2.39 2.15 1.54 1.09 0.80 0.58 0.40
0.43 0.42 0.42 0.43 0.44 0.41 0.40 0.35 0.29 0.26 0.25 0.15 0.06 0.06 0.12 0.19 0.25 0.24 0.21 0.17 0.14 0.15 0.18 0.22 0.26 0.29 0.37 0.47 0.60 0.85 1.36 1.97 2.21 1.95 1.47 1.08 0.74 0.50
0.69 0.68 0.65 0.62 0.62 0.60 0.57 0.48 0.37 0.29 0.25 0.21 0.12 0.08 0.12 0.22 0.31 0.33 0.28 0.21 0.15 0.16 0.18 0.20 0.23 0.25 0.29 0.36 0.46 0.60 0.83 1.18 1.64 1.93 1.86 1.45 1.04 0.74
0.78 0.81 0.87 0.89 0.88 0.82 0.77 0.62 0.46 0.34 0.27 0.24 0.19 0.14 0.13 0.21 0.37 0.42 0.38 0.30 0.20 0.16 0.18 0.19 0.22 0.24 0.24 0.24 0.27 0.39 0.62 0.95 1.26 1.64 1.90 1.76 1.33 1.04
0.52 0.58 0.69 0.84 0.93 0.95 0.94 0.78 0.59 0.47 0.37 0.31 0.25 0.21 0.18 0.24 0.38 0.46 0.50 0.47 0.39 0.29 0.22 0.17 0.18 0.18 0.19 0.22 0.27 0.35 0.49 0.67 0.89 1.17 1.52 1.76 1.58 1.27
0.31 0.34 0.40 0.55 0.64 0.71 0.80 0.80 0.80 0.75 0.63 0.49 0.39 0.32 0.28 0.30 0.37 0.51 0.54 0.56 0.55 0.45 0.37 0.30 0.24 0.21 0.20 0.19 0.22 0.27 0.37 0.50 0.67 0.85 1.07 1.35 1.52 1.40
0.16 0.17 0.19 0.29 0.40 0.43 0.47 0.53 0.64 0.77 0.84 0.76 0.68 0.57 0.43 0.37 0.38 0.45 0.53 0.58 0.60 0.59 0.55 0.53 0.46 0.35 0.28 0.27 0.30 0.27 0.29 0.36 0.48 0.61 0.76 0.97 1.20 1.35
0.12 0.11 0.09 0.15 0.30 0.29 0.26 0.34 0.45 0.61 0.81 0.88 0.91 0.81 0.60 0.44 0.40 0.47 0.57 0.60 0.65 0.75 0.75 0.71 0.63 0.49 0.44 0.40 0.38 0.30 0.25 0.27 0.35 0.45 0.56 0.71 0.89 1.09
0.10 0.12 0.09 0.08 0.19 0.14 0.12 0.20 0.27 0.41 0.54 0.68 0.73 0.69 0.60 0.53 0.50 0.50 0.59 0.67 0.80 0.92 0.92 0.88 0.83 0.62 0.57 0.58 0.53 0.40 0.28 0.25 0.28 0.35 0.43 0.52 0.65 0.85
0.06 0.08 0.14 0.13 0.12 0.09 0.07 0.11 0.18 0.24 0.27 0.33 0.37 0.42 0.44 0.44 0.51 0.59 0.68 0.72 0.83 1.01 1.03 0.93 0.98 0.80 0.75 0.73 0.58 0.41 0.30 0.30 0.31 0.33 0.36 0.39 0.47 0.59
0.05 0.07 0.11 0.11 0.07 0.05 0.04 0.07 0.14 0.11 0.10 0.17 0.23 0.30 0.38 0.43 0.49 0.58 0.67 0.73 0.80 0.93 0.98 0.89 0.99 0.85 0.70 0.75 0.66 0.50 0.32 0.28 0.30 0.37 0.40 0.41 0.40 0.40
0.06 0.05 0.06 0.05 0.02 0.02 0.02 0.03 0.03 0.02 0.03 0.07 0.12 0.18 0.29 0.41 0.51 0.58 0.64 0.70 0.78 0.86 0.84 0.77 0.85 0.78 0.56 0.49 0.57 0.58 0.42 0.31 0.27 0.30 0.36 0.49 0.49 0.43
0.17 0.12 0.02 0.00 0.00 0.00 0.00 0.01 0.00 0.01 0.02 0.03 0.08 0.14 0.23 0.34 0.40 0.46 0.52 0.56 0.62 0.72 0.77 0.74 0.76 0.78 0.59 0.41 0.37 0.43 0.45 0.44 0.33 0.28 0.30 0.34 0.35 0.32
0.13 0.09 0.02 0.00 0.00 0.00 0.00 0.00 0.00 0.01 0.01 0.03 0.05 0.09 0.13 0.20 0.28 0.37 0.45 0.48 0.51 0.63 0.79 0.84 0.84 0.84 0.75 0.53 0.37 0.34 0.31 0.40 0.39 0.26 0.26 0.30 0.29 0.22
0.08 0.02 0.00 0.00 0.00 0.00 0.00 0.00 0.00 0.00 0.00 0.01 0.02 0.05 0.09 0.14 0.22 0.30 0.40 0.45 0.49 0.58 0.77 0.95 0.95 0.92 0.90 0.77 0.56 0.41 0.27 0.23 0.28 0.24 0.19 0.25 0.32 0.28
0.05 0.01 0.00 0.00 0.00 0.00 0.00 0.00 0.00 0.00 0.00 0.01 0.02 0.04 0.07 0.12 0.18 0.25 0.34 0.42 0.48 0.53 0.64 0.83 0.90 0.88 0.97 1.06 0.86 0.51 0.29 0.19 0.22 0.22 0.17 0.18 0.29 0.35
0.02 0.01 0.00 0.00 0.00 0.00 0.00 0.00 0.00 0.00 0.00 0.00 0.01 0.03 0.05 0.09 0.13 0.20 0.27 0.36 0.45 0.51 0.58 0.66 0.77 0.79 0.84 1.04 1.19 0.80 0.40 0.22 0.19 0.25 0.23 0.16 0.19 0.27
0.01 0.01 0.01 0.01 0.00 0.00 0.00 0.00 0.00 0.00 0.00 0.00 0.01 0.02 0.03 0.06 0.10 0.15 0.22 0.31 0.39 0.48 0.54 0.59 0.73 0.79 0.69 0.64 0.78 0.92 0.71 0.34 0.19 0.23 0.28 0.25 0.21 0.22
0.02 0.02 0.02 0.02 0.01 0.01 0.00 0.00 0.00 0.00 0.00 0.00 0.00 0.01 0.02 0.04 0.07 0.11 0.16 0.23 0.30 0.39 0.45 0.53 0.67 0.72 0.67 0.51 0.49 0.69 0.80 0.61 0.29 0.18 0.21 0.23 0.23 0.21
0.03 0.03 0.02 0.02 0.02 0.01 0.01 0.00 0.00 0.00 0.00 0.00 0.00 0.01 0.01 0.03 0.05 0.07 0.11 0.17 0.24 0.31 0.38 0.46 0.54 0.67 0.75 0.67 0.60 0.62 0.71 0.75 0.62 0.39 0.23 0.15 0.12 0.13
0.06 0.05 0.03 0.03 0.02 0.01 0.01 0.01 0.00 0.00 0.00 0.00 0.00 0.00 0.01 0.02 0.03 0.05 0.07 0.12 0.18 0.23 0.30 0.39 0.47 0.58 0.73 0.74 0.66 0.58 0.56 0.58 0.55 0.47 0.45 0.32 0.17 0.09

GEFSNE_prec_meanprecacc_048.txt.gz
Total_Precipitation_Accumulation
0.23 0.24 0.26 0.24 0.25 0.25 0.27 0.32 0.39 0.25 0.07 0.03 0.05 0.06 0.08 0.12 0.16 0.16 0.16 0.19 0.24 0.29 0.30 0.31 0.34 0.41 0.69 1.31 2.21 2.82 2.63 1.94 1.19 0.76 0.67 0.72 0.72 0.68
0.28 0.29 0.30 0.31 0.30 0.30 0.31 0.29 0.32 0.33 0.19 0.05 0.05 0.07 0.09 0.11 0.16 0.17 0.18 0.19 0.20 0.23 0.27 0.28 0.30 0.37 0.49 0.75 1.30 2.15 2.69 2.58 1.92 1.24 0.91 0.86 0.80 0.71
0.29 0.33 0.34 0.34 0.34 0.32 0.32 0.32 0.29 0.31 0.27 0.08 0.04 0.07 0.12 0.15 0.17 0.17 0.18 0.17 0.16 0.18 0.23 0.27 0.29 0.34 0.44 0.59 0.82 1.35 2.15 2.60 2.52 1.96 1.44 1.11 0.88 0.67
0.43 0.42 0.43 0.43 0.45 0.43 0.42 0.37 0.32 0.29 0.29 0.17 0.06 0.06 0.13 0.20 0.25 0.25 0.21 0.17 0.15 0.16 0.19 0.23 0.27 0.30 0.38 0.48 0.62 0.87 1.41 2.10 2.51 2.41 1.94 1.45 1.06 0.80
0.69 0.68 0.65 0.62 0.62 0.61 0.59 0.50 0.39 0.30 0.27 0.23 0.13 0.08 0.13 0.22 0.32 0.33 0.29 0.21 0.16 0.17 0.18 0.21 0.24 0.27 0.30 0.38 0.48 0.62 0.86 1.25 1.83 2.31 2.41 2.01 1.47 1.07
0.78 0.82 0.87 0.89 0.89 0.85 0.80 0.65 0.48 0.36 0.29 0.25 0.20 0.15 0.14 0.22 0.37 0.42 0.39 0.30 0.21 0.17 0.19 0.20 0.23 0.26 0.26 0.26 0.29 0.42 0.65 0.99 1.37 1.88 2.35 2.40 1.97 1.52
0.53 0.58 0.70 0.85 0.95 0.98 0.98 0.82 0.62 0.49 0.39 0.32 0.27 0.22 0.19 0.26 0.40 0.48 0.50 0.47 0.40 0.30 0.23 0.19 0.20 0.21 0.22 0.24 0.30 0.38 0.53 0.71 0.94 1.31 1.81 2.25 2.23 1.90
0.33 0.35 0.40 0.55 0.65 0.73 0.83 0.83 0.82 0.78 0.67 0.52 0.41 0.34 0.29 0.31 0.39 0.52 0.55 0.58 0.57 0.47 0.38 0.32 0.28 0.25 0.23 0.22 0.26 0.31 0.41 0.55 0.72 0.93 1.23 1.66 2.00 2.01
0.18 0.19 0.20 0.29 0.41 0.45 0.50 0.54 0.65 0.79 0.87 0.81 0.71 0.59 0.45 0.38 0.41 0.47 0.55 0.60 0.61 0.61 0.57 0.56 0.51 0.40 0.34 0.32 0.35 0.32 0.34 0.42 0.54 0.69 0.86 1.14 1.50 1.78
0.14 0.12 0.10 0.16 0.30 0.33 0.29 0.34 0.45 0.62 0.83 0.91 0.95 0.85 0.63 0.47 0.44 0.50 0.60 0.62 0.66 0.78 0.78 0.74 0.70 0.57 0.53 0.48 0.45 0.37 0.33 0.34 0.42 0.53 0.65 0.81 1.06 1.38
0.11 0.12 0.10 0.09 0.21 0.18 0.14 0.20 0.27 0.42 0.55 0.70 0.75 0.72 0.63 0.57 0.54 0.54 0.61 0.69 0.83 0.98 1.00 0.94 0.91 0.73 0.68 0.70 0.63 0.49 0.38 0.34 0.35 0.42 0.51 0.60 0.75 1.04
0.07 0.09 0.14 0.15 0.15 0.12 0.09 0.12 0.20 0.26 0.28 0.34 0.38 0.43 0.45 0.46 0.53 0.62 0.71 0.75 0.88 1.11 1.15 1.00 1.08 0.94 0.91 0.89 0.73 0.51 0.41 0.40 0.40 0.40 0.44 0.48 0.57 0.72
0.06 0.08 0.11 0.13 0.09 0.07 0.06 0.09 0.18 0.14 0.11 0.18 0.24 0.31 0.39 0.44 0.50 0.59 0.70 0.77 0.86 1.03 1.11 0.99 1.12 1.00 0.87 0.93 0.85 0.66 0.44 0.37 0.37 0.45 0.49 0.51 0.52 0.51
0.07 0.05 0.07 0.06 0.03 0.02 0.03 0.05 0.05 0.04 0.05 0.09 0.14 0.20 0.31 0.43 0.52 0.60 0.66 0.73 0.83 0.95 0.97 0.90 1.01 0.96 0.72 0.66 0.74 0.78 0.60 0.45 0.36 0.37 0.42 0.60 0.64 0.60
0.18 0.12 0.03 0.01 0.00 0.00 0.01 0.02 0.01 0.02 0.04 0.06 0.11 0.17 0.25 0.37 0.42 0.48 0.54 0.59 0.66 0.80 0.89 0.87 0.92 0.96 0.75 0.57 0.55 0.65 0.69 0.65 0.46 0.38 0.38 0.42 0.48 0.51
0.14 0.09 0.02 0.00 0.00 0.00 0.00 0.00 0.01 0.02 0.04 0.05 0.09 0.12 0.16 0.22 0.30 0.40 0.48 0.52 0.56 0.70 0.88 0.95 1.00 1.02 0.91 0.69 0.55 0.55 0.55 0.63 0.57 0.39 0.36 0.40 0.42 0.37
0.08 0.02 0.00 0.00 0.00 0.00 0.00 0.00 0.00 0.01 0.02 0.03 0.05 0.08 0.12 0.17 0.25 0.34 0.44 0.49 0.55 0.65 0.84 1.05 1.08 1.09 1.08 0.95 0.76 0.64 0.51 0.45 0.47 0.38 0.31 0.39 0.50 0.46
0.05 0.01 0.00 0.00 0.00 0.00 0.00 0.00 0.00 0.00 0.01 0.02 0.04 0.06 0.10 0.16 0.21 0.28 0.37 0.47 0.54 0.60 0.71 0.92 1.01 1.04 1.15 1.25 1.11 0.77 0.58 0.45 0.44 0.39 0.30 0.31 0.50 0.59
0.02 0.01 0.01 0.01 0.01 0.01 0.00 0.00 0.00 0.00 0.01 0.02 0.03 0.05 0.07 0.11 0.16 0.23 0.31 0.40 0.50 0.57 0.64 0.73 0.87 0.94 1.02 1.23 1.43 1.10 0.73 0.53 0.47 0.48 0.42 0.30 0.36 0.52
0.01 0.02 0.02 0.02 0.01 0.01 0.01 0.01 0.00 0.00 0.00 0.01 0.02 0.03 0.05 0.08 0.12 0.18 0.26 0.35 0.44 0.53 0.59 0.66 0.82 0.92 0.87 0.83 0.97 1.19 1.12 0.72 0.49 0.50 0.52 0.44 0.40 0.52
0.02 0.02 0.02 0.02 0.02 0.02 0.01 0.01 0.01 0.00 0.00 0.00 0.01 0.02 0.03 0.05 0.09 0.13 0.20 0.28 0.35 0.44 0.50 0.59 0.76 0.86 0.85 0.68 0.66 0.90 1.14 1.09 0.66 0.44 0.41 0.40 0.40 0.42
0.03 0.03 0.03 0.03 0.03 0.02 0.02 0.01 0.01 0.01 0.00 0.00 0.00 0.01 0.02 0.04 0.06 0.09 0.14 0.20 0.28 0.36 0.43 0.52 0.62 0.77 0.89 0.84 0.77 0.80 0.96 1.12 1.06 0.76 0.48 0.30 0.22 0.24
0.06 0.05 0.04 0.04 0.03 0.03 0.02 0.02 0.01 0.01 0.00 0.00 0.00 0.01 0.01 0.02 0.04 0.06 0.09 0.14 0.21 0.27 0.35 0.44 0.54 0.67 0.88 0.93 0.84 0.76 0.75 0.84 0.87 0.81 0.80 0.61 0.33 0.18

GEFSNE_prec_meanprecacc_054.txt.gz
Total_Precipitation_Accumulation
0.23 0.24 0.26 0.24 0.25 0.25 0.27 0.35 0.46 0.31 0.09 0.03 0.05 0.06 0.09 0.12 0.17 0.17 0.16 0.19 0.25 0.30 0.31 0.32 0.35 0.43 0.70 1.31 2.21 2.83 2.64 1.96 1.23 0.84 0.81 1.00 1.25 1.33
0.28 0.29 0.31 0.31 0.30 0.30 0.31 0.30 0.35 0.39 0.23 0.05 0.06 0.07 0.09 0.12 0.17 0.18 0.18 0.19 0.20 0.24 0.28 0.29 0.31 0.38 0.50 0.76 1.30 2.16 2.70 2.59 1.95 1.30 1.02 1.05 1.17 1.34
0.30 0.33 0.35 0.34 0.34 0.32 0.33 0.32 0.30 0.33 0.30 0.08 0.04 0.07 0.13 0.16 0.17 0.17 0.18 0.17 0.16 0.19 0.24 0.28 0.30 0.35 0.45 0.59 0.82 1.35 2.15 2.61 2.54 2.00 1.52 1.27 1.16 1.12
0.43 0.43 0.43 0.44 0.45 0.43 0.43 0.38 0.33 0.31 0.32 0.20 0.06 0.06 0.13 0.20 0.26 0.25 0.21 0.18 0.15 0.16 0.19 0.24 0.27 0.31 0.39 0.49 0.63 0.87 1.42 2.10 2.52 2.43 1.98 1.55 1.27 1.16
0.71 0.70 0.67 0.64 0.64 0.62 0.60 0.51 0.40 0.32 0.29 0.25 0.14 0.08 0.13 0.22 0.32 0.33 0.29 0.21 0.16 0.17 0.18 0.21 0.25 0.27 0.31 0.39 0.49 0.63 0.87 1.26 1.83 2.32 2.45 2.09 1.63 1.36
0.81 0.84 0.89 0.91 0.91 0.86 0.81 0.66 0.50 0.38 0.31 0.27 0.21 0.15 0.14 0.22 0.38 0.43 0.39 0.30 0.21 0.17 0.19 0.20 0.23 0.27 0.26 0.26 0.29 0.42 0.65 1.00 1.38 1.89 2.37 2.46 2.10 1.73
0.56 0.60 0.71 0.87 0.97 1.01 1.01 0.85 0.66 0.54 0.42 0.34 0.28 0.23 0.20 0.26 0.40 0.48 0.51 0.47 0.40 0.30 0.23 0.19 0.20 0.21 0.22 0.25 0.30 0.39 0.53 0.72 0.95 1.32 1.83 2.30 2.33 2.08
0.35 0.36 0.41 0.56 0.67 0.74 0.85 0.86 0.87 0.83 0.70 0.54 0.42 0.35 0.30 0.31 0.39 0.53 0.56 0.59 0.58 0.48 0.38 0.32 0.28 0.25 0.24 0.22 0.26 0.31 0.41 0.55 0.73 0.94 1.25 1.69 2.08 2.16
0.19 0.20 0.21 0.30 0.42 0.45 0.52 0.58 0.67 0.80 0.88 0.82 0.73 0.60 0.46 0.39 0.42 0.49 0.56 0.61 0.62 0.61 0.58 0.56 0.51 0.40 0.34 0.33 0.35 0.32 0.35 0.43 0.55 0.70 0.87 1.16 1.55 1.90
0.14 0.13 0.11 0.16 0.31 0.38 0.40 0.39 0.46 0.62 0.83 0.92 0.97 0.87 0.65 0.50 0.49 0.54 0.62 0.63 0.66 0.78 0.80 0.75 0.70 0.57 0.53 0.49 0.45 0.37 0.33 0.35 0.43 0.54 0.66 0.83 1.09 1.46
0.12 0.13 0.10 0.10 0.24 0.28 0.20 0.21 0.27 0.42 0.55 0.70 0.76 0.73 0.65 0.60 0.58 0.60 0.64 0.71 0.84 0.98 1.02 0.97 0.92 0.74 0.70 0.71 0.64 0.50 0.39 0.35 0.37 0.44 0.53 0.63 0.78 1.11
0.07 0.09 0.14 0.17 0.21 0.17 0.10 0.13 0.22 0.29 0.29 0.34 0.38 0.43 0.45 0.46 0.54 0.65 0.74 0.78 0.89 1.13 1.17 1.04 1.10 0.96 0.94 0.92 0.74 0.53 0.42 0.42 0.42 0.43 0.47 0.52 0.62 0.78
0.06 0.08 0.12 0.16 0.13 0.09 0.07 0.11 0.23 0.17 0.12 0.18 0.25 0.31 0.39 0.45 0.50 0.60 0.72 0.80 0.88 1.05 1.14 1.04 1.16 1.05 0.94 0.99 0.89 0.69 0.46 0.39 0.40 0.49 0.54 0.56 0.58 0.55
0.07 0.06 0.08 0.08 0.05 0.03 0.03 0.07 0.07 0.04 0.06 0.10 0.15 0.21 0.32 0.44 0.53 0.61 0.68 0.75 0.85 0.97 1.00 0.96 1.08 1.06 0.85 0.77 0.84 0.85 0.65 0.49 0.40 0.41 0.46 0.66 0.71 0.66
0.19 0.13 0.04 0.01 0.01 0.00 0.02 0.03 0.02 0.02 0.05 0.08 0.13 0.19 0.28 0.39 0.44 0.50 0.56 0.62 0.69 0.82 0.92 0.92 0.99 1.09 0.93 0.73 0.69 0.75 0.77 0.72 0.53 0.44 0.44 0.47 0.53 0.56
0.14 0.09 0.02 0.00 0.00 0.00 0.01 0.01 0.01 0.03 0.06 0.08 0.12 0.15 0.18 0.24 0.32 0.43 0.51 0.56 0.61 0.74 0.92 1.00 1.08 1.18 1.09 0.87 0.72 0.69 0.67 0.76 0.68 0.48 0.43 0.45 0.47 0.41
0.08 0.02 0.00 0.00 0.00 0.00 0.00 0.00 0.00 0.01 0.03 0.05 0.08 0.10 0.14 0.20 0.28 0.37 0.48 0.55 0.61 0.72 0.91 1.12 1.18 1.26 1.30 1.18 0.98 0.81 0.66 0.61 0.62 0.51 0.41 0.47 0.57 0.52
0.05 0.01 0.00 0.00 0.01 0.01 0.01 0.01 0.01 0.01 0.02 0.04 0.06 0.09 0.14 0.20 0.26 0.32 0.42 0.53 0.62 0.68 0.80 1.03 1.16 1.25 1.42 1.53 1.38 1.00 0.77 0.65 0.65 0.57 0.42 0.41 0.61 0.68
0.02 0.01 0.01 0.01 0.02 0.02 0.01 0.01 0.01 0.01 0.02 0.03 0.05 0.08 0.11 0.15 0.21 0.28 0.36 0.46 0.56 0.65 0.74 0.87 1.05 1.19 1.33 1.54 1.73 1.38 0.97 0.77 0.73 0.73 0.60 0.41 0.45 0.61
0.01 0.02 0.02 0.02 0.02 0.03 0.02 0.02 0.01 0.01 0.01 0.02 0.03 0.05 0.08 0.12 0.16 0.23 0.31 0.41 0.50 0.60 0.68 0.79 1.00 1.17 1.19 1.19 1.32 1.51 1.45 1.03 0.78 0.78 0.75 0.61 0.53 0.68
0.02 0.02 0.03 0.03 0.03 0.03 0.03 0.02 0.01 0.01 0.01 0.01 0.02 0.03 0.06 0.08 0.12 0.18 0.24 0.33 0.40 0.49 0.58 0.70 0.92 1.08 1.14 1.02 1.02 1.25 1.52 1.52 1.04 0.73 0.63 0.59 0.60 0.66
0.03 0.04 0.03 0.03 0.03 0.03 0.03 0.03 0.02 0.01 0.01 0.01 0.01 0.02 0.03 0.06 0.09 0.13 0.18 0.25 0.33 0.41 0.51 0.61 0.75 0.98 1.17 1.18 1.15 1.19 1.38 1.60 1.58 1.20 0.79 0.51 0.36 0.38
0.06 0.05 0.04 0.04 0.04 0.04 0.04 0.03 0.02 0.01 0.01 0.01 0.01 0.01 0.02 0.04 0.06 0.08 0.12 0.18 0.25 0.32 0.41 0.53 0.66 0.87 1.17 1.29 1.24 1.17 1.20 1.33 1.40 1.31 1.24 0.94 0.51 0.27

GEFSNE_prec_meanprecacc_060.txt.gz
Total_Precipitation_Accumulation
0.23 0.24 0.26 0.24 0.25 0.25 0.28 0.38 0.51 0.35 0.09 0.03 0.05 0.06 0.09 0.12 0.17 0.17 0.17 0.20 0.26 0.32 0.35 0.36 0.40 0.47 0.76 1.40 2.31 2.92 2.74 2.04 1.29 0.89 0.87 1.07 1.44 1.80
0.28 0.29 0.31 0.31 0.30 0.30 0.32 0.32 0.38 0.44 0.26 0.05 0.06 0.07 0.09 0.12 0.17 0.18 0.18 0.20 0.21 0.26 0.30 0.32 0.34 0.41 0.54 0.81 1.36 2.22 2.76 2.65 2.00 1.35 1.07 1.11 1.29 1.69
0.30 0.34 0.35 0.34 0.35 0.33 0.34 0.34 0.33 0.37 0.35 0.09 0.04 0.07 0.13 0.16 0.17 0.17 0.19 0.18 0.16 0.19 0.25 0.30 0.32 0.37 0.47 0.62 0.85 1.39 2.19 2.65 2.58 2.04 1.57 1.33 1.23 1.32
0.43 0.43 0.44 0.44 0.46 0.44 0.44 0.40 0.35 0.32 0.35 0.22 0.07 0.06 0.13 0.20 0.26 0.25 0.21 0.18 0.15 0.16 0.20 0.25 0.29 0.33 0.41 0.51 0.64 0.90 1.44 2.13 2.55 2.46 2.02 1.58 1.32 1.28
0.71 0.70 0.68 0.65 0.65 0.63 0.61 0.53 0.42 0.33 0.31 0.27 0.15 0.09 0.13 0.23 0.33 0.34 0.29 0.21 0.16 0.17 0.19 0.22 0.26 0.29 0.33 0.40 0.51 0.64 0.88 1.27 1.84 2.34 2.46 2.12 1.67 1.43
0.82 0.85 0.90 0.92 0.92 0.88 0.84 0.68 0.52 0.41 0.34 0.31 0.23 0.16 0.14 0.22 0.38 0.43 0.39 0.31 0.21 0.17 0.19 0.20 0.24 0.28 0.28 0.28 0.31 0.43 0.66 1.01 1.39 1.89 2.38 2.48 2.13 1.78
0.57 0.61 0.72 0.87 0.99 1.04 1.05 0.90 0.73 0.62 0.49 0.40 0.32 0.25 0.21 0.26 0.41 0.48 0.51 0.47 0.40 0.31 0.23 0.19 0.20 0.22 0.23 0.26 0.31 0.40 0.54 0.72 0.96 1.33 1.84 2.30 2.35 2.10
0.36 0.37 0.41 0.56 0.67 0.76 0.87 0.89 0.92 0.92 0.80 0.61 0.47 0.37 0.31 0.32 0.40 0.54 0.57 0.60 0.58 0.48 0.39 0.32 0.28 0.26 0.24 0.23 0.27 0.32 0.42 0.56 0.73 0.95 1.25 1.70 2.08 2.17
0.19 0.20 0.21 0.30 0.42 0.46 0.53 0.60 0.70 0.82 0.91 0.85 0.76 0.61 0.46 0.39 0.43 0.50 0.57 0.63 0.63 0.61 0.59 0.56 0.51 0.40 0.34 0.33 0.35 0.33 0.35 0.43 0.55 0.70 0.87 1.16 1.56 1.91
0.15 0.13 0.11 0.16 0.31 0.40 0.49 0.47 0.48 0.63 0.83 0.93 0.99 0.89 0.67 0.53 0.55 0.60 0.66 0.65 0.67 0.78 0.81 0.77 0.70 0.57 0.53 0.49 0.46 0.38 0.34 0.35 0.43 0.54 0.66 0.83 1.10 1.47
0.12 0.13 0.10 0.10 0.25 0.33 0.29 0.25 0.28 0.42 0.55 0.71 0.78 0.77 0.69 0.65 0.66 0.69 0.69 0.73 0.85 0.99 1.03 0.98 0.93 0.74 0.70 0.71 0.64 0.50 0.39 0.35 0.37 0.44 0.53 0.64 0.79 1.11
0.07 0.09 0.14 0.17 0.23 0.22 0.15 0.15 0.23 0.31 0.31 0.34 0.39 0.43 0.46 0.46 0.56 0.69 0.78 0.81 0.91 1.13 1.18 1.06 1.11 0.98 0.95 0.92 0.75 0.53 0.42 0.42 0.43 0.44 0.47 0.52 0.62 0.79
0.06 0.08 0.12 0.17 0.15 0.12 0.09 0.12 0.26 0.21 0.14 0.19 0.25 0.32 0.39 0.45 0.51 0.61 0.74 0.84 0.91 1.06 1.15 1.06 1.18 1.06 0.95 1.00 0.90 0.69 0.46 0.39 0.41 0.50 0.54 0.56 0.59 0.57
0.08 0.06 0.08 0.09 0.06 0.04 0.04 0.08 0.09 0.05 0.06 0.10 0.16 0.22 0.33 0.45 0.54 0.62 0.69 0.78 0.88 0.98 1.00 0.97 1.09 1.07 0.86 0.78 0.84 0.85 0.65 0.49 0.40 0.42 0.47 0.66 0.72 0.68
0.19 0.13 0.04 0.02 0.01 0.01 0.02 0.03 0.02 0.03 0.06 0.08 0.14 0.20 0.29 0.40 0.45 0.51 0.57 0.63 0.70 0.83 0.93 0.93 1.01 1.11 0.95 0.75 0.70 0.76 0.79 0.74 0.54 0.45 0.45 0.48 0.54 0.59
0.14 0.09 0.02 0.00 0.00 0.00 0.01 0.01 0.01 0.03 0.07 0.09 0.13 0.16 0.19 0.26 0.34 0.45 0.53 0.58 0.62 0.75 0.93 1.02 1.10 1.21 1.11 0.88 0.73 0.70 0.68 0.78 0.71 0.50 0.45 0.47 0.49 0.43
0.09 0.02 0.00 0.00 0.00 0.00 0.00 0.00 0.01 0.01 0.03 0.06 0.09 0.12 0.15 0.21 0.30 0.39 0.51 0.58 0.64 0.73 0.92 1.14 1.21 1.29 1.32 1.20 0.99 0.82 0.68 0.63 0.64 0.54 0.45 0.52 0.61 0.55
0.05 0.01 0.00 0.00 0.01 0.01 0.01 0.01 0.01 0.01 0.03 0.05 0.07 0.11 0.16 0.22 0.28 0.34 0.45 0.57 0.65 0.71 0.83 1.06 1.20 1.30 1.46 1.55 1.39 1.02 0.79 0.67 0.67 0.61 0.48 0.47 0.66 0.73
0.02 0.01 0.01 0.01 0.02 0.02 0.02 0.02 0.02 0.01 0.02 0.04 0.07 0.09 0.13 0.18 0.24 0.31 0.40 0.50 0.60 0.69 0.78 0.92 1.11 1.25 1.37 1.57 1.74 1.40 1.00 0.79 0.76 0.78 0.66 0.48 0.50 0.65
0.01 0.02 0.02 0.02 0.02 0.03 0.03 0.03 0.02 0.01 0.01 0.03 0.04 0.07 0.11 0.15 0.20 0.27 0.36 0.47 0.56 0.65 0.73 0.84 1.06 1.23 1.25 1.23 1.36 1.54 1.48 1.06 0.82 0.83 0.82 0.69 0.63 0.78
0.02 0.02 0.03 0.03 0.03 0.04 0.03 0.03 0.02 0.02 0.02 0.02 0.03 0.05 0.08 0.12 0.17 0.23 0.30 0.39 0.47 0.56 0.65 0.77 0.98 1.16 1.23 1.10 1.08 1.30 1.56 1.56 1.11 0.80 0.71 0.70 0.74 0.82
0.03 0.04 0.03 0.03 0.04 0.04 0.04 0.03 0.02 0.02 0.01 0.02 0.03 0.03 0.05 0.09 0.13 0.18 0.24 0.31 0.40 0.49 0.59 0.70 0.84 1.09 1.27 1.27 1.23 1.25 1.45 1.66 1.67 1.31 0.92 0.64 0.49 0.52
0.06 0.06 0.05 0.04 0.04 0.04 0.04 0.04 0.03 0.02 0.02 0.02 0.02 0.02 0.04 0.06 0.09 0.13 0.18 0.25 0.32 0.40 0.51 0.64 0.79 1.00 1.28 1.40 1.34 1.26 1.28 1.42 1.53 1.46 1.40 1.11 0.66 0.38

GEFSNE_prec_meanprecacc_066.txt.gz
Total_Precipitation_Accumulation
0.23 0.24 0.26 0.24 0.25 0.25 0.28 0.38 0.53 0.37 0.10 0.03 0.05 0.06 0.09 0.12 0.17 0.17 0.17 0.20 0.27 0.34 0.36 0.39 0.43 0.51 0.82 1.47 2.41 3.07 2.93 2.26 1.52 1.10 1.06 1.24 1.60 1.96
0.28 0.30 0.31 0.31 0.30 0.30 0.32 0.32 0.40 0.48 0.29 0.05 0.06 0.07 0.09 0.12 0.17 0.18 0.18 0.20 0.22 0.27 0.31 0.33 0.36 0.44 0.57 0.86 1.43 2.33 2.90 2.82 2.19 1.57 1.29 1.31 1.46 1.86
0.30 0.34 0.35 0.34 0.35 0.33 0.34 0.35 0.34 0.39 0.38 0.10 0.04 0.07 0.13 0.16 0.17 0.17 0.19 0.18 0.16 0.19 0.26 0.31 0.34 0.40 0.50 0.65 0.90 1.46 2.30 2.79 2.75 2.23 1.77 1.53 1.42 1.50
0.44 0.43 0.44 0.44 0.46 0.44 0.45 0.40 0.36 0.34 0.38 0.24 0.07 0.06 0.13 0.20 0.26 0.25 0.21 0.18 0.15 0.16 0.20 0.26 0.31 0.35 0.43 0.54 0.68 0.94 1.50 2.22 2.68 2.61 2.18 1.76 1.51 1.46
0.71 0.71 0.68 0.65 0.65 0.63 0.61 0.53 0.42 0.34 0.33 0.30 0.16 0.09 0.13 0.23 0.33 0.34 0.29 0.21 0.16 0.17 0.19 0.22 0.27 0.30 0.35 0.42 0.53 0.67 0.92 1.33 1.93 2.45 2.59 2.25 1.82 1.58
0.82 0.85 0.90 0.93 0.92 0.88 0.85 0.69 0.54 0.44 0.36 0.34 0.26 0.17 0.15 0.22 0.39 0.44 0.40 0.31 0.22 0.17 0.19 0.20 0.24 0.29 0.29 0.30 0.33 0.46 0.69 1.05 1.45 1.98 2.48 2.58 2.23 1.88
0.57 0.61 0.72 0.88 1.00 1.06 1.09 0.94 0.78 0.68 0.55 0.45 0.36 0.28 0.23 0.28 0.43 0.50 0.53 0.48 0.40 0.31 0.24 0.19 0.20 0.22 0.23 0.27 0.33 0.41 0.55 0.75 1.00 1.40 1.92 2.39 2.42 2.18
0.36 0.37 0.41 0.57 0.68 0.77 0.88 0.91 0.95 0.97 0.87 0.68 0.52 0.40 0.32 0.33 0.41 0.55 0.59 0.61 0.59 0.48 0.39 0.33 0.28 0.26 0.24 0.23 0.27 0.33 0.43 0.58 0.76 0.99 1.32 1.77 2.15 2.23
0.19 0.20 0.21 0.30 0.42 0.46 0.53 0.61 0.71 0.84 0.94 0.90 0.80 0.63 0.47 0.40 0.45 0.52 0.59 0.65 0.64 0.62 0.60 0.58 0.51 0.40 0.34 0.33 0.35 0.33 0.36 0.45 0.58 0.73 0.93 1.22 1.61 1.97
0.15 0.13 0.11 0.16 0.31 0.40 0.49 0.49 0.50 0.64 0.84 0.94 1.01 0.91 0.70 0.57 0.62 0.68 0.72 0.69 0.68 0.79 0.82 0.79 0.71 0.58 0.53 0.49 0.46 0.38 0.34 0.36 0.45 0.57 0.70 0.87 1.14 1.51
0.12 0.13 0.10 0.10 0.25 0.34 0.31 0.29 0.30 0.43 0.56 0.72 0.80 0.78 0.72 0.67 0.70 0.76 0.74 0.76 0.86 0.99 1.03 1.01 0.94 0.75 0.70 0.71 0.64 0.51 0.39 0.35 0.38 0.46 0.55 0.66 0.82 1.14
0.08 0.09 0.15 0.17 0.24 0.23 0.17 0.18 0.25 0.32 0.32 0.35 0.39 0.44 0.46 0.47 0.56 0.72 0.83 0.85 0.93 1.15 1.19 1.08 1.13 1.00 0.97 0.93 0.76 0.54 0.43 0.42 0.43 0.45 0.48 0.54 0.65 0.81
0.06 0.08 0.12 0.17 0.16 0.13 0.11 0.14 0.27 0.24 0.16 0.20 0.25 0.32 0.40 0.45 0.51 0.62 0.77 0.89 0.95 1.08 1.16 1.08 1.20 1.09 0.98 1.01 0.91 0.70 0.47 0.40 0.41 0.50 0.55 0.58 0.60 0.59
0.08 0.06 0.08 0.09 0.07 0.05 0.05 0.09 0.10 0.07 0.07 0.11 0.16 0.22 0.33 0.45 0.55 0.63 0.71 0.81 0.91 1.01 1.02 1.00 1.13 1.10 0.89 0.80 0.85 0.86 0.66 0.50 0.41 0.43 0.48 0.67 0.73 0.69
0.19 0.13 0.04 0.03 0.02 0.01 0.02 0.04 0.03 0.03 0.06 0.09 0.14 0.20 0.29 0.40 0.45 0.52 0.58 0.65 0.72 0.85 0.95 0.95 1.05 1.14 0.98 0.77 0.71 0.78 0.80 0.75 0.55 0.46 0.46 0.50 0.56 0.60
0.15 0.09 0.02 0.00 0.00 0.00 0.01 0.01 0.01 0.03 0.07 0.09 0.13 0.16 0.19 0.26 0.35 0.46 0.55 0.59 0.64 0.76 0.94 1.03 1.13 1.24 1.15 0.90 0.75 0.72 0.70 0.79 0.71 0.51 0.46 0.49 0.50 0.45
0.09 0.03 0.01 0.00 0.00 0.00 0.00 0.00 0.01 0.01 0.03 0.06 0.09 0.12 0.16 0.21 0.30 0.40 0.53 0.60 0.67 0.75 0.94 1.15 1.23 1.32 1.34 1.22 1.01 0.84 0.70 0.63 0.65 0.54 0.47 0.54 0.63 0.56
0.06 0.02 0.01 0.00 0.01 0.01 0.01 0.01 0.01 0.01 0.03 0.05 0.08 0.11 0.16 0.23 0.29 0.35 0.47 0.60 0.68 0.73 0.85 1.08 1.23 1.33 1.49 1.57 1.40 1.03 0.80 0.68 0.68 0.62 0.49 0.49 0.68 0.74
0.03 0.01 0.01 0.01 0.02 0.02 0.02 0.02 0.02 0.01 0.02 0.05 0.07 0.10 0.14 0.19 0.25 0.33 0.42 0.53 0.63 0.71 0.80 0.94 1.14 1.29 1.40 1.59 1.75 1.40 1.00 0.80 0.77 0.79 0.68 0.50 0.52 0.66
0.02 0.02 0.03 0.02 0.03 0.03 0.03 0.03 0.02 0.01 0.02 0.03 0.05 0.08 0.12 0.17 0.22 0.29 0.38 0.50 0.59 0.68 0.76 0.87 1.09 1.26 1.28 1.25 1.38 1.56 1.49 1.08 0.83 0.85 0.83 0.71 0.64 0.79
0.02 0.02 0.03 0.03 0.03 0.04 0.03 0.03 0.03 0.02 0.02 0.03 0.04 0.06 0.09 0.14 0.19 0.24 0.32 0.42 0.51 0.59 0.68 0.79 1.00 1.19 1.26 1.14 1.11 1.32 1.57 1.57 1.12 0.81 0.73 0.72 0.76 0.85
0.04 0.04 0.04 0.03 0.04 0.04 0.04 0.04 0.03 0.02 0.02 0.02 0.03 0.04 0.06 0.11 0.15 0.20 0.26 0.34 0.43 0.52 0.62 0.72 0.86 1.12 1.31 1.30 1.24 1.26 1.46 1.67 1.68 1.32 0.93 0.65 0.52 0.54
0.07 0.06 0.05 0.04 0.04 0.04 0.05 0.04 0.03 0.02 0.02 0.02 0.03 0.03 0.04 0.07 0.11 0.15 0.21 0.28 0.36 0.44 0.55 0.67 0.82 1.03 1.31 1.42 1.36 1.28 1.31 1.44 1.54 1.47 1.41 1.12 0.67 0.38

GEFSNE_prec_meanprecacc_072.txt.gz
Total_Precipitation_Accumulation
0.23 0.24 0.26 0.24 0.25 0.26 0.28 0.38 0.53 0.37 0.10 0.03 0.05 0.06 0.09 0.12 0.17 0.17 0.17 0.20 0.27 0.34 0.37 0.40 0.44 0.53 0.84 1.50 2.45 3.11 2.97 2.30 1.56 1.16 1.13 1.33 1.70 2.07
0.28 0.30 0.31 0.31 0.31 0.30 0.32 0.32 0.40 0.48 0.29 0.05 0.06 0.07 0.09 0.12 0.17 0.18 0.18 0.20 0.22 0.27 0.32 0.34 0.37 0.46 0.60 0.89 1.46 2.36 2.94 2.86 2.24 1.63 1.37 1.41 1.58 1.99
0.30 0.34 0.35 0.35 0.35 0.33 0.34 0.35 0.34 0.40 0.39 0.10 0.04 0.07 0.13 0.16 0.17 0.17 0.19 0.18 0.16 0.19 0.26 0.32 0.35 0.42 0.52 0.68 0.93 1.50 2.34 2.84 2.80 2.30 1.86 1.64 1.55 1.65
0.44 0.43 0.44 0.45 0.47 0.45 0.45 0.41 0.36 0.34 0.39 0.24 0.07 0.06 0.13 0.20 0.26 0.25 0.21 0.18 0.15 0.16 0.20 0.27 0.32 0.37 0.46 0.56 0.71 0.98 1.55 2.27 2.73 2.67 2.25 1.86 1.63 1.62
0.72 0.71 0.68 0.65 0.66 0.64 0.62 0.54 0.43 0.34 0.33 0.30 0.16 0.09 0.13 0.23 0.33 0.34 0.29 0.22 0.16 0.17 0.19 0.22 0.27 0.31 0.36 0.45 0.56 0.71 0.96 1.37 1.97 2.50 2.65 2.33 1.92 1.71
0.82 0.85 0.91 0.93 0.93 0.89 0.86 0.70 0.54 0.44 0.37 0.35 0.26 0.17 0.15 0.23 0.40 0.45 0.40 0.31 0.22 0.17 0.19 0.20 0.25 0.30 0.30 0.32 0.35 0.48 0.72 1.09 1.49 2.02 2.53 2.64 2.30 1.98
0.58 0.61 0.72 0.88 1.01 1.07 1.10 0.95 0.79 0.70 0.56 0.47 0.37 0.29 0.23 0.29 0.44 0.51 0.53 0.48 0.40 0.31 0.24 0.19 0.20 0.22 0.23 0.27 0.33 0.42 0.56 0.77 1.03 1.43 1.95 2.44 2.49 2.27
0.37 0.37 0.42 0.58 0.69 0.78 0.90 0.93 0.97 1.00 0.90 0.71 0.54 0.41 0.33 0.34 0.42 0.56 0.59 0.62 0.60 0.48 0.40 0.33 0.28 0.26 0.24 0.23 0.28 0.34 0.45 0.60 0.79 1.03 1.36 1.81 2.22 2.32
0.20 0.21 0.22 0.31 0.43 0.47 0.55 0.63 0.73 0.86 0.96 0.92 0.83 0.64 0.48 0.41 0.45 0.54 0.60 0.67 0.66 0.62 0.61 0.59 0.52 0.41 0.34 0.33 0.36 0.35 0.39 0.48 0.61 0.77 0.97 1.27 1.67 2.06
0.15 0.13 0.12 0.17 0.32 0.41 0.50 0.50 0.51 0.65 0.85 0.95 1.02 0.92 0.70 0.58 0.64 0.71 0.77 0.72 0.70 0.79 0.83 0.81 0.71 0.58 0.53 0.49 0.46 0.39 0.36 0.39 0.49 0.60 0.74 0.92 1.20 1.59
0.12 0.13 0.11 0.10 0.25 0.35 0.33 0.30 0.30 0.43 0.56 0.73 0.81 0.80 0.73 0.70 0.73 0.80 0.79 0.79 0.88 0.99 1.04 1.02 0.94 0.76 0.71 0.71 0.65 0.52 0.41 0.39 0.41 0.50 0.59 0.71 0.87 1.22
0.09 0.10 0.15 0.18 0.24 0.24 0.20 0.20 0.26 0.32 0.32 0.36 0.40 0.44 0.47 0.47 0.57 0.73 0.84 0.87 0.95 1.16 1.19 1.10 1.14 1.02 0.99 0.93 0.76 0.55 0.44 0.44 0.45 0.47 0.51 0.58 0.69 0.87
0.09 0.10 0.13 0.18 0.18 0.15 0.13 0.16 0.28 0.24 0.17 0.21 0.26 0.32 0.40 0.45 0.51 0.63 0.78 0.91 0.98 1.10 1.16 1.11 1.24 1.12 1.02 1.03 0.91 0.70 0.48 0.41 0.43 0.52 0.57 0.60 0.64 0.64
0.10 0.07 0.08 0.10 0.08 0.07 0.07 0.12 0.12 0.08 0.09 0.12 0.17 0.22 0.33 0.45 0.55 0.63 0.72 0.81 0.93 1.03 1.03 1.03 1.20 1.14 0.94 0.83 0.86 0.87 0.67 0.52 0.43 0.45 0.50 0.70 0.77 0.74
0.21 0.15 0.06 0.04 0.03 0.03 0.04 0.05 0.04 0.05 0.07 0.09 0.14 0.20 0.29 0.40 0.45 0.52 0.58 0.65 0.73 0.86 0.96 0.98 1.10 1.19 1.04 0.82 0.73 0.78 0.81 0.76 0.57 0.49 0.50 0.54 0.60 0.65
0.20 0.13 0.05 0.03 0.02 0.02 0.01 0.02 0.02 0.04 0.07 0.10 0.13 0.16 0.19 0.26 0.35 0.46 0.56 0.60 0.65 0.77 0.95 1.05 1.16 1.30 1.21 0.93 0.78 0.74 0.71 0.80 0.73 0.54 0.50 0.52 0.54 0.49
0.15 0.10 0.07 0.05 0.04 0.03 0.01 0.01 0.01 0.02 0.03 0.06 0.09 0.12 0.16 0.22 0.30 0.40 0.53 0.61 0.68 0.76 0.95 1.16 1.25 1.35 1.39 1.26 1.05 0.85 0.71 0.64 0.66 0.56 0.49 0.57 0.66 0.59
0.13 0.10 0.06 0.04 0.03 0.03 0.02 0.02 0.01 0.01 0.03 0.05 0.08 0.11 0.17 0.23 0.29 0.36 0.48 0.61 0.70 0.75 0.86 1.10 1.25 1.37 1.52 1.59 1.42 1.05 0.82 0.69 0.69 0.63 0.51 0.52 0.71 0.77
0.10 0.07 0.04 0.04 0.03 0.03 0.03 0.02 0.02 0.01 0.02 0.05 0.07 0.10 0.14 0.20 0.26 0.33 0.43 0.54 0.65 0.73 0.82 0.96 1.18 1.34 1.45 1.61 1.76 1.43 1.04 0.83 0.80 0.81 0.69 0.52 0.54 0.69
0.08 0.07 0.05 0.04 0.04 0.04 0.04 0.03 0.02 0.01 0.02 0.03 0.05 0.08 0.12 0.18 0.23 0.30 0.39 0.52 0.61 0.70 0.77 0.88 1.13 1.31 1.33 1.29 1.40 1.58 1.51 1.12 0.87 0.87 0.85 0.72 0.66 0.82
0.06 0.05 0.05 0.05 0.05 0.04 0.04 0.03 0.03 0.02 0.02 0.03 0.04 0.06 0.10 0.15 0.20 0.26 0.34 0.43 0.53 0.62 0.70 0.80 1.02 1.22 1.31 1.19 1.14 1.33 1.58 1.60 1.15 0.84 0.75 0.74 0.79 0.88
0.07 0.07 0.06 0.05 0.05 0.05 0.05 0.04 0.03 0.02 0.02 0.03 0.03 0.04 0.07 0.11 0.17 0.21 0.28 0.36 0.45 0.55 0.64 0.74 0.88 1.14 1.35 1.35 1.27 1.28 1.48 1.69 1.71 1.34 0.95 0.67 0.55 0.59
0.10 0.09 0.07 0.06 0.05 0.05 0.05 0.04 0.04 0.03 0.02 0.03 0.03 0.03 0.05 0.08 0.12 0.17 0.23 0.30 0.38 0.47 0.57 0.70 0.84 1.06 1.34 1.45 1.39 1.30 1.33 1.46 1.56 1.48 1.42 1.13 0.68 0.41

GEFSNE_prec_meanprecacc_078.txt.gz
Total_Precipitation_Accumulation
0.23 0.24 0.26 0.24 0.25 0.26 0.28 0.38 0.53 0.37 0.10 0.03 0.05 0.06 0.09 0.13 0.17 0.17 0.17 0.20 0.27 0.34 0.37 0.40 0.45 0.54 0.85 1.51 2.46 3.12 2.98 2.31 1.58 1.18 1.15 1.36 1.73 2.10
0.28 0.30 0.31 0.31 0.31 0.30 0.32 0.32 0.40 0.48 0.29 0.05 0.06 0.07 0.09 0.12 0.17 0.18 0.18 0.20 0.22 0.27 0.32 0.34 0.38 0.46 0.60 0.90 1.48 2.38 2.96 2.88 2.27 1.66 1.40 1.45 1.62 2.03
0.30 0.34 0.35 0.35 0.35 0.33 0.34 0.35 0.34 0.40 0.39 0.10 0.04 0.07 0.13 0.16 0.17 0.17 0.19 0.18 0.16 0.19 0.26 0.32 0.35 0.42 0.53 0.69 0.95 1.52 2.36 2.86 2.83 2.33 1.90 1.68 1.60 1.70
0.44 0.43 0.44 0.45 0.47 0.45 0.45 0.41 0.36 0.34 0.39 0.25 0.07 0.06 0.13 0.20 0.26 0.25 0.22 0.18 0.15 0.16 0.20 0.27 0.32 0.37 0.46 0.58 0.73 1.00 1.57 2.29 2.75 2.70 2.28 1.89 1.67 1.66
0.72 0.71 0.68 0.65 0.66 0.64 0.62 0.54 0.43 0.34 0.33 0.31 0.16 0.09 0.13 0.23 0.33 0.34 0.29 0.22 0.16 0.17 0.19 0.22 0.27 0.31 0.37 0.45 0.57 0.72 0.98 1.39 1.99 2.53 2.67 2.35 1.95 1.75
0.82 0.85 0.91 0.93 0.93 0.89 0.86 0.70 0.55 0.45 0.38 0.36 0.27 0.18 0.15 0.23 0.40 0.45 0.40 0.31 0.22 0.17 0.19 0.20 0.25 0.30 0.31 0.32 0.35 0.49 0.73 1.09 1.50 2.04 2.55 2.66 2.33 2.01
0.58 0.61 0.72 0.88 1.01 1.07 1.10 0.96 0.80 0.71 0.58 0.49 0.38 0.30 0.24 0.29 0.44 0.51 0.54 0.48 0.41 0.31 0.24 0.19 0.20 0.22 0.23 0.27 0.33 0.42 0.57 0.77 1.03 1.44 1.97 2.46 2.52 2.30
0.37 0.37 0.42 0.58 0.69 0.79 0.91 0.94 0.98 1.02 0.91 0.72 0.55 0.42 0.33 0.34 0.42 0.56 0.60 0.63 0.60 0.48 0.40 0.33 0.28 0.26 0.24 0.23 0.28 0.34 0.45 0.61 0.80 1.05 1.39 1.85 2.26 2.37
0.20 0.21 0.22 0.31 0.43 0.48 0.56 0.65 0.78 0.91 0.99 0.95 0.84 0.65 0.48 0.41 0.46 0.55 0.61 0.68 0.66 0.62 0.61 0.59 0.52 0.41 0.34 0.33 0.36 0.35 0.39 0.49 0.62 0.79 1.00 1.31 1.72 2.11
0.15 0.13 0.12 0.17 0.32 0.41 0.51 0.51 0.53 0.68 0.89 1.02 1.09 0.94 0.71 0.58 0.65 0.73 0.79 0.75 0.71 0.80 0.84 0.82 0.71 0.58 0.53 0.49 0.46 0.39 0.36 0.40 0.50 0.62 0.77 0.95 1.23 1.64
0.12 0.13 0.11 0.11 0.25 0.36 0.37 0.33 0.31 0.44 0.57 0.76 0.87 0.86 0.76 0.72 0.75 0.85 0.86 0.85 0.91 1.00 1.04 1.02 0.94 0.76 0.71 0.71 0.65 0.52 0.42 0.39 0.42 0.51 0.61 0.74 0.91 1.26
0.09 0.10 0.16 0.19 0.25 0.26 0.24 0.24 0.28 0.32 0.33 0.37 0.42 0.48 0.51 0.51 0.61 0.78 0.90 0.92 0.98 1.17 1.19 1.10 1.14 1.03 1.00 0.93 0.76 0.55 0.44 0.44 0.46 0.48 0.52 0.59 0.71 0.90
0.09 0.10 0.13 0.18 0.19 0.17 0.17 0.20 0.30 0.25 0.18 0.22 0.28 0.33 0.41 0.47 0.54 0.65 0.80 0.93 1.00 1.11 1.16 1.11 1.25 1.13 1.04 1.04 0.91 0.70 0.48 0.41 0.43 0.52 0.57 0.61 0.65 0.67
0.11 0.08 0.09 0.11 0.10 0.11 0.12 0.17 0.16 0.13 0.15 0.17 0.20 0.24 0.34 0.46 0.55 0.64 0.72 0.82 0.93 1.03 1.03 1.04 1.21 1.16 0.97 0.85 0.87 0.87 0.67 0.52 0.43 0.45 0.50 0.70 0.78 0.76
0.22 0.16 0.07 0.06 0.06 0.06 0.08 0.12 0.12 0.14 0.18 0.17 0.17 0.21 0.29 0.41 0.46 0.53 0.59 0.66 0.74 0.86 0.96 0.99 1.11 1.21 1.07 0.85 0.74 0.79 0.81 0.76 0.57 0.49 0.50 0.54 0.61 0.67
0.21 0.15 0.08 0.07 0.06 0.05 0.04 0.06 0.08 0.12 0.15 0.15 0.15 0.17 0.20 0.27 0.36 0.47 0.56 0.61 0.66 0.77 0.95 1.05 1.17 1.32 1.24 0.96 0.80 0.75 0.71 0.80 0.73 0.54 0.51 0.54 0.55 0.50
0.17 0.13 0.11 0.09 0.10 0.08 0.06 0.04 0.05 0.07 0.09 0.11 0.12 0.14 0.17 0.23 0.31 0.41 0.54 0.62 0.69 0.77 0.95 1.16 1.25 1.36 1.40 1.29 1.08 0.87 0.71 0.65 0.66 0.57 0.52 0.60 0.67 0.61
0.18 0.16 0.11 0.08 0.08 0.08 0.07 0.05 0.05 0.05 0.06 0.08 0.11 0.13 0.18 0.24 0.30 0.36 0.48 0.61 0.71 0.75 0.86 1.10 1.26 1.38 1.53 1.60 1.43 1.06 0.83 0.70 0.70 0.65 0.54 0.56 0.73 0.78
0.17 0.14 0.08 0.07 0.07 0.07 0.06 0.06 0.05 0.03 0.04 0.07 0.09 0.12 0.15 0.20 0.26 0.34 0.44 0.55 0.65 0.73 0.82 0.97 1.19 1.38 1.49 1.62 1.76 1.43 1.06 0.85 0.82 0.82 0.71 0.55 0.57 0.70
0.13 0.12 0.09 0.07 0.07 0.08 0.07 0.06 0.05 0.04 0.04 0.05 0.06 0.09 0.13 0.18 0.23 0.30 0.40 0.52 0.62 0.70 0.78 0.89 1.14 1.35 1.39 1.32 1.42 1.58 1.52 1.15 0.91 0.90 0.87 0.74 0.69 0.83
0.09 0.09 0.09 0.09 0.08 0.08 0.07 0.06 0.06 0.05 0.04 0.04 0.05 0.07 0.10 0.15 0.20 0.26 0.34 0.44 0.54 0.63 0.71 0.81 1.02 1.24 1.36 1.24 1.17 1.33 1.59 1.61 1.19 0.90 0.80 0.79 0.82 0.90
0.09 0.09 0.09 0.08 0.08 0.08 0.08 0.07 0.06 0.05 0.04 0.04 0.04 0.05 0.08 0.12 0.17 0.22 0.29 0.37 0.46 0.56 0.65 0.74 0.88 1.16 1.38 1.39 1.30 1.29 1.48 1.70 1.71 1.36 0.99 0.72 0.60 0.63
0.12 0.11 0.10 0.09 0.08 0.08 0.08 0.07 0.06 0.05 0.04 0.04 0.04 0.04 0.06 0.09 0.13 0.17 0.24 0.31 0.40 0.48 0.58 0.71 0.84 1.07 1.37 1.48 1.42 1.32 1.34 1.47 1.57 1.49 1.43 1.13 0.69 0.43